                ,  0.290,  0.386,  0.483,  0.580,  0.676,  0.773,  0.869,  0.966,  1.063,  1.159,  1.256,  1.352,  1.449,  1.545,  1.642,  1.739,  1.835,  1.932,  2.028,  2.125,  2.222,  2.318,  2.415,  2.511,  2.608,  2.705,  2.801,  2.898,  2.994,  3.091,  3.188,  3.284,  3.381,  3.477,  3.574,  3.671,  3.767,  3.864,  3.960,  4.057,  4.153,  4.250,  4.347,  4.443,  4.540,  4.636,  4.733,  4.830,  4.926,  5.023,  5.119,  5.216,  5.313,  5.409,  5.506,  5.602,  5.699,  5.796
2001/03/28 00:00,  999.0,   -0.6,   -3.1,   -4.4,   -5.6,   -8.2,   -8.9,   -4.8,   -5.7,   -4.5,   -6.1,   -8.7,   -4.3,   -5.3,   -5.1,   -4.1,   -2.7,  999.0,   -1.1,   -1.0,   -2.8,   -2.7,   -1.3,    0.9,    0.4,  999.0,  999.0,    2.2,    4.0,  999.0,  999.0,  999.0,  999.0,  999.0,  999.0,  999.0,  999.0,  999.0,  999.0,  999.0,  999.0,  999.0,  999.0,  999.0,  999.0,  999.0,  999.0,  999.0,  999.0,  999.0,  999.0,  999.0,  999.0,  999.0,  999.0,  999.0,  999.0,  999.0
2001/03/28 00:10,  999.0,   -1.2,   -2.9,   -3.3,   -4.8,   -5.7,   -7.2,   -6.0,   -5.1,   -5.1,   -5.3,   -5.4,   -4.4,   -4.2,   -3.6,   -2.9,   -3.3,   -4.8,   -3.7,   -4.1,   -3.5,   -2.6,  999.0,   -1.4,   -0.9,  999.0,  999.0,  999.0,  999.0,  999.0,  999.0,  999.0,  999.0,  999.0,  999.0,  999.0,  999.0,  999.0,  999.0,  999.0,  999.0,  999.0,  999.0,  999.0,  999.0,  999.0,  999.0,  999.0,  999.0,  999.0,  999.0,  999.0,  999.0,  999.0,  999.0,  999.0,  999.0,  999.0
2001/03/28 00:20,  999.0,    0.9,   -1.5,   -4.1,   -6.0,   -8.2,   -7.9,   -7.1,   -7.9,   -6.6,   -4.0,   -4.6,   -5.8,   -4.7,   -4.1,   -4.0,   -3.2,   -3.4,   -4.5,   -4.2,   -4.5,  999.0,  999.0,  999.0,    0.2,    1.8,  999.0,  999.0,    4.2,  999.0,  999.0,  999.0,  999.0,  999.0,  999.0,  999.0,  999.0,  999.0,  999.0,  999.0,  999.0,  999.0,  999.0,  999.0,  999.0,  999.0,  999.0,  999.0,  999.0,  999.0,  999.0,  999.0,  999.0,  999.0,  999.0,  999.0,  999.0,  999.0
2001/03/28 00:30,  999.0,    0.7,   -2.1,   -3.2,   -5.1,   -5.5,   -4.2,   -5.8,   -5.5,   -6.7,   -4.5,   -5.7,   -4.9,   -3.8,   -3.9,   -3.9,   -4.0,   -4.4,   -3.7,   -2.8,   -2.4,  999.0,  999.0,  999.0,  999.0,  999.0,  999.0,  999.0,  999.0,  999.0,  999.0,  999.0,  999.0,  999.0,  999.0,  999.0,  999.0,  999.0,  999.0,  999.0,  999.0,  999.0,  999.0,  999.0,  999.0,  999.0,  999.0,  999.0,  999.0,  999.0,  999.0,  999.0,  999.0,  999.0,  999.0,  999.0,  999.0,  999.0
2001/03/28 00:40,  999.0,  999.0,   -2.4,   -3.7,   -3.8,   -4.4,   -7.3,   -6.0,   -8.1,   -6.4,   -6.1,   -6.5,   -4.8,   -3.8,   -3.5,   -4.1,   -4.5,  999.0,  999.0,  999.0,   -3.4,  999.0,  999.0,  999.0,  999.0,  999.0,  999.0,  999.0,   26.7,  999.0,  999.0,  999.0,  999.0,  999.0,  999.0,  999.0,  999.0,  999.0,  999.0,  999.0,  999.0,  999.0,   30.3,   35.9,  999.0,   42.5,   42.4,  999.0,  999.0,  999.0,  999.0,  999.0,  999.0,   42.1,  999.0,  999.0,  999.0,  999.0
2001/03/28 00:50,  999.0,   -0.8,   -1.0,   -2.0,   -2.1,   -5.6,   -5.3,   -6.2,   -5.6,   -8.4,   -4.7,   -5.2,   -4.1,   -4.3,   -3.0,   -3.1,   -3.5,   -3.0,   -3.8,  999.0,   -2.0,  999.0,  999.0,  999.0,  999.0,  999.0,  999.0,  999.0,  999.0,  999.0,  999.0,  999.0,  999.0,  999.0,  999.0,  999.0,  999.0,  999.0,   41.8,  999.0,   41.5,   41.8,  999.0,   41.5,  999.0,  999.0,   41.6,   41.6,  999.0,  999.0,   41.7,  999.0,   41.9,   41.4,   42.2,   41.2,  999.0,  999.0
2001/03/28 01:00,  999.0,    1.4,    2.1,   -1.6,   -2.1,   -3.1,   -5.6,   -5.8,   -7.7,   -8.9,   -6.1,   -4.4,   -4.4,   -4.5,   -2.5,   -2.9,  999.0,  999.0,  999.0,  999.0,  999.0,  999.0,  999.0,  999.0,  999.0,  999.0,  999.0,  999.0,  999.0,  999.0,  999.0,  999.0,  999.0,  999.0,  999.0,   36.4,  999.0,  999.0,   41.4,   41.0,   39.9,  999.0,   40.8,   41.6,  999.0,   41.8,   41.9,   41.8,   41.7,   42.3,   42.2,   41.8,   41.9,  999.0,   42.1,   41.4,   42.3,   41.8
2001/03/28 01:10,  999.0,    2.8,    3.1,   -0.6,   -1.9,   -4.1,   -5.1,   -6.8,   -5.8,   -7.7,   -6.3,   -5.3,   -4.4,   -3.9,  999.0,  999.0,   -4.6,  999.0,  999.0,   -3.5,   -2.8,   -1.8,  999.0,   -0.6,    1.0,    1.7,  999.0,  999.0,  999.0,  999.0,  999.0,  999.0,  999.0,  999.0,  999.0,  999.0,  999.0,  999.0,  999.0,  999.0,  999.0,  999.0,  999.0,   41.1,  999.0,  999.0,  999.0,  999.0,  999.0,   41.2,   41.3,   41.8,  999.0,  999.0,   42.0,  999.0,   41.7,   41.7
2001/03/28 01:20,  999.0,  999.0,    1.6,   -1.2,   -1.6,   -0.0,   -3.5,   -5.3,   -6.7,   -4.9,   -4.6,   -4.2,   -4.1,   -4.4,  999.0,  999.0,  999.0,   -4.6,   -5.3,   -4.0,   -3.6,   -3.1,   -1.8,   -1.2,   -1.5,    0.8,  999.0,  999.0,  999.0,  999.0,  999.0,  999.0,  999.0,  999.0,  999.0,  999.0,  999.0,  999.0,  999.0,  999.0,  999.0,  999.0,  999.0,  999.0,  999.0,  999.0,  999.0,  999.0,  999.0,   41.5,  999.0,   42.2,  999.0,  999.0,  999.0,  999.0,  999.0,  999.0
2001/03/28 01:30,  999.0,    2.8,    1.5,    0.0,   -0.0,   -2.2,   -4.3,   -5.2,   -8.5,   -5.2,   -5.6,   -4.7,   -4.7,   -4.7,   -5.4,   -9.1,  999.0,   -5.4,   -4.7,   -4.1,   -4.3,   -4.0,   -3.7,   -5.3,   -6.3,  999.0,  999.0,  999.0,  999.0,  999.0,  999.0,  999.0,  999.0,  999.0,  999.0,  999.0,  999.0,  999.0,  999.0,  999.0,  999.0,  999.0,  999.0,  999.0,  999.0,  999.0,  999.0,  999.0,  999.0,   20.1,  999.0,  999.0,  999.0,   19.3,  999.0,  999.0,  999.0,  999.0
2001/03/28 01:40,  999.0,    2.9,    1.0,   -0.7,   -2.6,   -1.2,   -2.6,   -4.3,   -5.5,   -6.4,  999.0,   -3.9,   -4.5,   -4.3,   -4.7,  999.0,   -4.2,   -4.5,   -4.7,   -4.6,   -4.9,  999.0,   -4.3,   -5.2,   -5.9,  999.0,  999.0,  999.0,  999.0,  999.0,  999.0,  999.0,  999.0,  999.0,  999.0,  999.0,  999.0,  999.0,  999.0,  999.0,  999.0,  999.0,  999.0,  999.0,  999.0,   20.4,  999.0,  999.0,  999.0,   20.1,  999.0,  999.0,  999.0,  999.0,  999.0,  999.0,  999.0,  999.0
2001/03/28 01:50,  999.0,    2.1,    1.8,    0.7,   -0.3,   -0.2,   -4.3,   -4.0,   -4.2,   -4.7,   -4.4,   -3.8,   -3.5,   -3.6,   -3.9,  999.0,   -3.7,   -3.9,   -4.4,  999.0,   -4.0,   -4.3,   -4.2,   -4.7,  999.0,  999.0,  999.0,  999.0,  999.0,  999.0,  999.0,  999.0,  999.0,  999.0,  999.0,  999.0,  999.0,  999.0,  999.0,  999.0,  999.0,  999.0,  999.0,  999.0,  999.0,  999.0,  999.0,  999.0,  999.0,  999.0,   20.8,  999.0,  999.0,  999.0,  999.0,  999.0,  999.0,  999.0
2001/03/28 02:00,  999.0,    4.3,   -0.4,   -0.4,    1.0,   -1.0,   -3.5,   -4.2,   -5.2,   -4.3,   -4.3,   -3.2,   -3.3,   -3.1,   -3.1,  999.0,  999.0,   -3.7,   -3.8,   -3.3,   -3.3,   -3.7,   -4.1,   -4.1,  999.0,  999.0,  999.0,  999.0,  999.0,  999.0,  999.0,  999.0,  999.0,  999.0,  999.0,  999.0,  999.0,  999.0,  999.0,  999.0,  999.0,  999.0,  999.0,  999.0,  999.0,  999.0,  999.0,  999.0,  999.0,  999.0,   20.7,   21.2,  999.0,  999.0,  999.0,   20.8,  999.0,   20.6
2001/03/28 02:10,  999.0,    1.3,    0.5,    0.2,   -0.2,   -3.3,   -4.4,   -4.4,   -3.5,   -2.9,   -2.5,   -2.2,   -2.1,   -2.1,  999.0,  999.0,   -3.4,   -2.7,   -2.8,  999.0,   -2.8,  999.0,  999.0,  999.0,  999.0,  999.0,  999.0,  999.0,  999.0,  999.0,  999.0,  999.0,  999.0,  999.0,  999.0,  999.0,  999.0,  999.0,  999.0,  999.0,  999.0,  999.0,  999.0,  999.0,  999.0,  999.0,  999.0,  999.0,  999.0,  999.0,  999.0,  999.0,  999.0,  999.0,  999.0,  999.0,  999.0,  999.0
2001/03/28 02:20,  999.0,    1.4,   -0.6,    0.0,    0.5,   -2.6,   -4.0,   -3.5,   -3.8,   -3.7,   -3.4,   -4.6,   -3.1,   -2.6,   -0.8,  999.0,   -2.4,   -2.1,  999.0,  999.0,  999.0,  999.0,  999.0,  999.0,  999.0,  999.0,  999.0,  999.0,  999.0,  999.0,  999.0,  999.0,  999.0,  999.0,  999.0,  999.0,  999.0,  999.0,  999.0,  999.0,  999.0,  999.0,  999.0,  999.0,  999.0,  999.0,  999.0,  999.0,  999.0,  999.0,  999.0,  999.0,  999.0,  999.0,  999.0,  999.0,  999.0,  999.0
2001/03/28 02:30,  999.0,    1.0,    0.3,   -0.1,   -0.8,   -2.3,   -3.1,   -2.7,   -2.0,   -3.0,   -2.0,   -1.8,   -0.6,   -1.5,   -0.8,  999.0,   -2.1,   -1.5,  999.0,  999.0,  999.0,  999.0,  999.0,  999.0,  999.0,  999.0,  999.0,  999.0,  999.0,  999.0,  999.0,  999.0,  999.0,  999.0,  999.0,  999.0,  999.0,  999.0,  999.0,  999.0,  999.0,  999.0,  999.0,  999.0,  999.0,  999.0,  999.0,  999.0,  999.0,  999.0,  999.0,  999.0,  999.0,  999.0,  999.0,  999.0,  999.0,  999.0
2001/03/28 02:40,  999.0,    2.7,    1.7,   -0.1,   -1.2,   -1.8,   -5.0,   -4.4,   -5.1,   -2.0,   -2.0,   -2.8,   -1.8,   -1.2,   -0.7,   -1.7,   -2.6,   -2.3,   -2.2,   -2.9,   -3.1,   -3.6,  999.0,  999.0,  999.0,  999.0,  999.0,  999.0,  999.0,  999.0,  999.0,  999.0,   -3.3,  999.0,  999.0,  999.0,  999.0,  999.0,  999.0,  999.0,  999.0,  999.0,  999.0,  999.0,  999.0,  999.0,  999.0,  999.0,  999.0,  999.0,  999.0,  999.0,  999.0,  999.0,  999.0,  999.0,  999.0,  999.0
2001/03/28 02:50,  999.0,  999.0,    0.2,    0.6,   -1.3,   -2.0,   -3.1,   -4.3,   -6.7,   -5.8,   -2.8,   -2.8,   -1.8,   -1.6,   -0.5,   -1.3,   -1.9,   -1.7,   -2.7,   -3.7,   -4.0,  999.0,  999.0,  999.0,  999.0,  999.0,  999.0,  999.0,  999.0,  999.0,  999.0,  999.0,  999.0,  999.0,  999.0,  999.0,  999.0,  999.0,  999.0,  999.0,  999.0,  999.0,  999.0,  999.0,  999.0,  999.0,  999.0,  999.0,  999.0,  999.0,  999.0,  999.0,  999.0,  999.0,  999.0,  999.0,  999.0,  999.0
2001/03/28 03:00,  999.0,    2.1,   -0.2,    0.8,    0.2,   -1.1,   -2.1,   -2.3,   -4.1,   -1.1,   -2.5,   -2.3,   -1.8,   -1.6,  999.0,   -1.8,   -1.6,   -2.1,  999.0,  999.0,  999.0,  999.0,  999.0,  999.0,  999.0,  999.0,  999.0,  999.0,  999.0,  999.0,  999.0,  999.0,  999.0,  999.0,  999.0,  999.0,  999.0,  999.0,  999.0,  999.0,  999.0,  999.0,  999.0,  999.0,  999.0,  999.0,  999.0,  999.0,  999.0,  999.0,  999.0,  999.0,  999.0,  999.0,  999.0,  999.0,  999.0,  999.0
2001/03/28 03:10,  999.0,    2.1,    1.5,   -0.1,   -1.7,   -3.1,   -1.8,   -1.7,   -1.7,   -0.8,   -1.7,   -2.1,   -1.2,   -1.1,  999.0,   -1.3,   -1.3,   -1.6,   -2.4,  999.0,  999.0,  999.0,  999.0,  999.0,  999.0,  999.0,  999.0,  999.0,  999.0,  999.0,  999.0,  999.0,  999.0,  999.0,  999.0,  999.0,  999.0,  999.0,  999.0,  999.0,  999.0,  999.0,  999.0,  999.0,  999.0,  999.0,  999.0,  999.0,  999.0,  999.0,  999.0,  999.0,  999.0,  999.0,  999.0,  999.0,   28.8,  999.0
2001/03/28 03:20,  999.0,  999.0,   -0.7,   -0.9,   -1.0,   -1.4,   -2.5,   -1.9,   -2.3,   -3.8,   -0.9,   -1.5,   -1.1,   -0.9,  999.0,   -1.4,   -0.9,   -0.6,   -1.3,   -1.4,  999.0,  999.0,  999.0,  999.0,  999.0,  999.0,  999.0,  999.0,  999.0,  999.0,  999.0,  999.0,  999.0,  999.0,  999.0,  999.0,  999.0,  999.0,  999.0,  999.0,  999.0,  999.0,  999.0,  999.0,  999.0,   25.4,   25.4,  999.0,   25.8,  999.0,   25.7,  999.0,  999.0,  999.0,   26.5,  999.0,  999.0,  999.0
2001/03/28 03:30,  999.0,  999.0,    1.4,   -0.0,   -0.6,   -2.0,   -3.1,   -3.0,   -2.5,   -1.4,   -0.9,   -1.6,   -1.5,   -1.0,   -0.9,  999.0,   -0.9,   -1.0,  999.0,  999.0,  999.0,  999.0,  999.0,  999.0,  999.0,  999.0,  999.0,  999.0,  999.0,  999.0,  999.0,  999.0,  999.0,  999.0,  999.0,  999.0,  999.0,  999.0,  999.0,  999.0,  999.0,  999.0,  999.0,  999.0,  999.0,  999.0,  999.0,  999.0,  999.0,  999.0,  999.0,  999.0,  999.0,  999.0,  999.0,  999.0,  999.0,  999.0
2001/03/28 03:40,  999.0,    1.7,    1.7,    0.2,    0.4,   -1.8,   -3.7,   -3.8,   -3.1,   -2.3,   -0.9,   -1.5,   -1.8,   -0.8,   -0.5,   -1.1,   -1.2,   -1.1,   -0.7,   -1.3,  999.0,    0.1,  999.0,  999.0,  999.0,  999.0,  999.0,  999.0,  999.0,  999.0,  999.0,  999.0,  999.0,  999.0,  999.0,  999.0,   37.9,   38.1,   38.1,   40.6,  999.0,  999.0,   41.3,   41.6,  999.0,   41.7,  999.0,  999.0,   42.1,   41.9,  999.0,   42.0,   41.8,   42.0,  999.0,   42.0,   41.4,  999.0
2001/03/28 03:50,  999.0,    3.2,  999.0,   -1.5,    1.1,    0.2,   -2.4,   -2.1,  999.0,   -0.5,   -1.1,   -1.2,   -1.4,   -0.7,   -0.5,    3.2,   -0.3,    1.9,   -0.4,    1.6,    2.1,  999.0,  999.0,  999.0,  999.0,  999.0,  999.0,  999.0,  999.0,  999.0,  999.0,  999.0,  999.0,  999.0,  999.0,  999.0,  999.0,  999.0,  999.0,   42.1,   41.8,  999.0,   41.5,   41.7,  999.0,  999.0,   41.7,   41.8,   41.5,   41.4,   41.4,  999.0,   42.0,  999.0,   41.9,   41.8,  999.0,  999.0
2001/03/28 04:00,  999.0,   -1.2,   -0.1,    0.4,    0.4,   -1.6,   -1.7,   -2.3,  999.0,   -2.0,    0.3,  999.0,   -0.8,   -0.6,   -0.7,   -0.8,    0.0,  999.0,   -0.2,  999.0,  999.0,  999.0,  999.0,  999.0,  999.0,  999.0,  999.0,  999.0,  999.0,  999.0,  999.0,  999.0,  999.0,   31.6,  999.0,  999.0,   36.1,  999.0,   37.2,  999.0,   39.4,   40.5,  999.0,  999.0,  999.0,  999.0,   41.4,   41.2,  999.0,  999.0,   41.9,  999.0,  999.0,   41.7,  999.0,  999.0,  999.0,  999.0
2001/03/28 04:10,  999.0,    2.9,    0.1,    0.6,    1.5,   -0.1,   -1.6,   -2.2,    0.1,  999.0,   -1.7,   -1.0,   -1.1,   -0.8,   -0.4,   -1.0,   -0.5,   -1.4,   -1.0,   -0.4,   -0.4,  999.0,  999.0,  999.0,  999.0,  999.0,  999.0,  999.0,  999.0,  999.0,  999.0,  999.0,  999.0,  999.0,  999.0,   35.2,   35.6,   36.0,   37.0,   37.2,   38.6,   39.0,  999.0,  999.0,  999.0,  999.0,   41.7,  999.0,   42.0,  999.0,   41.3,   41.6,   41.4,   41.2,  999.0,   41.3,  999.0,  999.0
2001/03/28 04:20,  999.0,  999.0,  999.0,  999.0,    0.2,   -0.9,   -0.7,   -1.0,   -0.9,   -0.1,    0.3,   -0.5,   -0.3,   -1.1,    0.4,   -0.7,   -0.9,   -0.8,   -0.5,   -0.1,   -0.1,  999.0,  999.0,  999.0,  999.0,  999.0,  999.0,  999.0,  999.0,  999.0,  999.0,  999.0,  999.0,  999.0,  999.0,  999.0,  999.0,  999.0,  999.0,  999.0,   36.0,   38.4,  999.0,   38.3,   39.4,  999.0,  999.0,   41.3,  999.0,  999.0,  999.0,  999.0,  999.0,  999.0,   41.6,   41.4,   41.2,   41.6
2001/03/28 04:30,  999.0,    2.9,   -0.2,    0.2,   -1.4,   -1.0,   -1.1,   -1.1,   -2.4,   -1.3,   -0.0,   -0.6,   -1.0,   -0.3,   -0.3,   -1.3,   -1.5,  999.0,  999.0,  999.0,  999.0,  999.0,  999.0,  999.0,  999.0,  999.0,  999.0,  999.0,  999.0,  999.0,  999.0,  999.0,  999.0,  999.0,  999.0,  999.0,  999.0,  999.0,   29.1,  999.0,  999.0,  999.0,  999.0,  999.0,  999.0,  999.0,  999.0,  999.0,  999.0,  999.0,  999.0,  999.0,  999.0,  999.0,  999.0,  999.0,  999.0,  999.0
2001/03/28 04:40,  999.0,    2.1,  999.0,   -0.4,   -0.8,   -1.4,   -2.6,   -1.9,    0.2,    1.9,   -0.8,   -0.2,   -0.7,    0.2,    0.3,   -0.7,   -0.5,  999.0,  999.0,  999.0,  999.0,  999.0,  999.0,  999.0,  999.0,  999.0,  999.0,  999.0,  999.0,  999.0,  999.0,  999.0,  999.0,  999.0,  999.0,  999.0,  999.0,  999.0,  999.0,  999.0,  999.0,  999.0,  999.0,  999.0,  999.0,  999.0,  999.0,  999.0,  999.0,  999.0,  999.0,  999.0,  999.0,  999.0,  999.0,  999.0,  999.0,  999.0
2001/03/28 04:50,  999.0,    1.5,    1.8,   -0.3,   -0.6,   -0.8,   -0.7,   -1.2,   -1.7,  999.0,   -1.1,    0.3,   -0.5,   -0.5,   -0.0,   -0.2,   -0.7,   -0.7,  999.0,  999.0,    0.0,  999.0,  999.0,  999.0,  999.0,  999.0,  999.0,  999.0,  999.0,  999.0,  999.0,  999.0,  999.0,  999.0,  999.0,  999.0,  999.0,  999.0,  999.0,  999.0,  999.0,  999.0,  999.0,   22.2,   22.4,   22.6,   22.3,   22.5,   22.9,   22.6,  999.0,  999.0,  999.0,  999.0,  999.0,  999.0,  999.0,  999.0
2001/03/28 05:00,  999.0,    1.3,    0.8,    1.0,   -0.2,    0.5,   -0.3,  999.0,   -0.5,  999.0,    0.1,   -0.8,   -0.8,   -0.5,   -0.2,  999.0,  999.0,  999.0,  999.0,  999.0,   -0.1,  999.0,  999.0,  999.0,  999.0,  999.0,  999.0,  999.0,  999.0,  999.0,  999.0,  999.0,  999.0,  999.0,  999.0,  999.0,  999.0,   19.0,  999.0,  999.0,  999.0,  999.0,  999.0,  999.0,  999.0,   23.0,  999.0,   22.2,  999.0,  999.0,  999.0,   22.3,  999.0,  999.0,  999.0,  999.0,  999.0,  999.0
2001/03/28 05:10,  999.0,    2.6,   -0.1,   -0.7,   -0.8,  999.0,    0.0,    0.8,   -0.6,   -0.3,    0.5,   -1.0,  999.0,  999.0,   -0.0,  999.0,   -0.5,  999.0,  999.0,  999.0,  999.0,  999.0,  999.0,  999.0,  999.0,  999.0,  999.0,  999.0,  999.0,  999.0,  999.0,  999.0,  999.0,  999.0,  999.0,  999.0,  999.0,  999.0,  999.0,  999.0,  999.0,  999.0,  999.0,  999.0,  999.0,  999.0,  999.0,  999.0,  999.0,  999.0,  999.0,  999.0,  999.0,  999.0,  999.0,  999.0,  999.0,  999.0
2001/03/28 05:20,  999.0,    2.4,   -1.3,   -0.7,  999.0,   -0.4,    0.0,    0.4,   -0.3,   -0.4,    1.0,    0.3,   -0.8,   -0.7,   -0.5,   -1.4,   -1.2,  999.0,  999.0,   -1.7,  999.0,  999.0,  999.0,  999.0,  999.0,  999.0,  999.0,  999.0,  999.0,  999.0,  999.0,  999.0,  999.0,  999.0,  999.0,  999.0,  999.0,  999.0,  999.0,  999.0,  999.0,  999.0,  999.0,  999.0,  999.0,  999.0,  999.0,  999.0,  999.0,  999.0,  999.0,  999.0,  999.0,  999.0,  999.0,  999.0,  999.0,  999.0
2001/03/28 05:30,  999.0,  999.0,  999.0,  999.0,   -1.5,   -0.2,    0.3,    0.0,   -0.5,   -0.0,    0.0,   -0.2,   -0.7,  999.0,    0.1,   -0.7,  999.0,  999.0,  999.0,  999.0,  999.0,  999.0,  999.0,  999.0,  999.0,  999.0,  999.0,  999.0,  999.0,  999.0,  999.0,  999.0,  999.0,  999.0,  999.0,   39.0,  999.0,  999.0,  999.0,  999.0,  999.0,  999.0,   41.9,  999.0,  999.0,  999.0,  999.0,  999.0,  999.0,   41.8,  999.0,  999.0,  999.0,  999.0,  999.0,  999.0,  999.0,  999.0
2001/03/28 05:40,  999.0,  999.0,  999.0,   -1.9,   -2.2,   -1.8,   -1.2,   -0.2,    0.9,   -0.1,    0.6,   -0.1,   -1.2,   -1.3,   -0.1,  999.0,  999.0,  999.0,  999.0,  999.0,  999.0,  999.0,  999.0,  999.0,  999.0,  999.0,  999.0,  999.0,  999.0,  999.0,   32.1,  999.0,  999.0,  999.0,  999.0,  999.0,  999.0,  999.0,  999.0,   36.6,   37.3,  999.0,  999.0,   41.1,  999.0,  999.0,  999.0,   41.4,   42.1,   41.7,   41.9,   41.9,  999.0,   42.2,  999.0,   41.9,  999.0,  999.0
2001/03/28 05:50,  999.0,  999.0,   -1.7,   -1.9,   -2.0,   -1.0,   -0.9,    0.1,   -0.7,   -0.2,    0.5,    0.0,   -0.6,   -0.6,   -0.5,   -1.0,   -0.8,  999.0,  999.0,  999.0,  999.0,  999.0,  999.0,  999.0,  999.0,  999.0,  999.0,  999.0,  999.0,  999.0,  999.0,  999.0,  999.0,  999.0,  999.0,  999.0,  999.0,  999.0,  999.0,   37.9,   37.2,  999.0,   40.0,  999.0,   40.3,  999.0,  999.0,  999.0,  999.0,   41.6,  999.0,  999.0,   41.5,   41.8,   42.0,  999.0,   42.3,  999.0
2001/03/28 06:00,  999.0,  999.0,  999.0,  999.0,   -2.4,   -1.7,   -1.3,   -0.2,   -0.1,   -0.4,    0.6,   -0.5,   -1.0,   -0.6,   -0.7,   -0.7,   -0.3,    0.1,    0.6,  999.0,  999.0,  999.0,  999.0,  999.0,  999.0,  999.0,  999.0,  999.0,  999.0,  999.0,  999.0,  999.0,  999.0,  999.0,  999.0,  999.0,  999.0,  999.0,   35.9,   37.8,  999.0,   39.6,   39.6,   40.5,   41.6,   41.1,  999.0,  999.0,   41.6,   41.3,  999.0,   41.5,   41.3,  999.0,  999.0,   42.0,  999.0,   42.0
2001/03/28 06:10,  999.0,  999.0,  999.0,  999.0,   -3.1,   -4.2,   -1.8,    1.4,    1.1,    1.3,   -1.1,   -1.6,    0.1,  999.0,  999.0,   -0.4,   -0.3,  999.0,  999.0,  999.0,  999.0,  999.0,  999.0,  999.0,  999.0,  999.0,  999.0,  999.0,  999.0,  999.0,  999.0,  999.0,  999.0,  999.0,  999.0,  999.0,  999.0,  999.0,  999.0,  999.0,  999.0,  999.0,  999.0,  999.0,  999.0,  999.0,   42.0,   41.9,   42.0,  999.0,  999.0,   41.6,   42.0,  999.0,  999.0,  999.0,  999.0,  999.0
2001/03/28 06:20,  999.0,  999.0,  999.0,   -2.7,  999.0,   -2.7,   -1.0,    0.2,   -2.2,    0.9,    1.2,   -0.1,   -0.3,   -0.3,   -0.1,   -0.2,    0.2,  999.0,  999.0,  999.0,  999.0,  999.0,  999.0,  999.0,  999.0,  999.0,  999.0,  999.0,  999.0,  999.0,  999.0,  999.0,  999.0,  999.0,  999.0,  999.0,  999.0,  999.0,  999.0,  999.0,  999.0,  999.0,  999.0,  999.0,  999.0,   40.7,  999.0,  999.0,   41.6,   41.4,  999.0,  999.0,   41.8,   41.5,  999.0,  999.0,   41.7,  999.0
2001/03/28 06:30,  999.0,  999.0,  999.0,   -1.2,   -3.0,   -1.8,    0.4,    0.7,   -2.3,    0.0,    0.3,    0.2,   -0.4,    0.3,    0.7,   -0.4,   -0.5,  999.0,  999.0,  999.0,  999.0,  999.0,  999.0,  999.0,  999.0,  999.0,  999.0,  999.0,  999.0,  999.0,  999.0,  999.0,  999.0,  999.0,  999.0,  999.0,  999.0,  999.0,  999.0,  999.0,  999.0,   25.1,  999.0,  999.0,   35.9,  999.0,  999.0,   30.3,   29.6,   30.2,   25.6,   30.4,  999.0,  999.0,  999.0,  999.0,  999.0,  999.0
2001/03/28 06:40,  999.0,  999.0,   -0.2,   -0.1,   -2.0,   -0.2,   -0.8,   -1.3,   -0.7,   -0.2,    0.5,    0.7,   -1.5,    1.1,    0.9,  999.0,   -1.0,  999.0,  999.0,  999.0,  999.0,  999.0,  999.0,  999.0,  999.0,  999.0,  999.0,  999.0,  999.0,  999.0,  999.0,  999.0,  999.0,  999.0,  999.0,  999.0,  999.0,  999.0,  999.0,  999.0,  999.0,  999.0,  999.0,  999.0,  999.0,  999.0,  999.0,  999.0,  999.0,  999.0,  999.0,  999.0,  999.0,  999.0,  999.0,  999.0,  999.0,  999.0
2001/03/28 06:50,  999.0,  999.0,  999.0,   -1.7,   -2.7,   -2.8,    0.8,    0.3,    1.0,    0.4,    1.2,    0.6,   -0.7,    1.3,    0.9,    1.0,   -0.8,   -1.0,   -1.1,  999.0,  999.0,  999.0,  999.0,  999.0,  999.0,  999.0,  999.0,  999.0,  999.0,  999.0,  999.0,  999.0,  999.0,   21.7,  999.0,  999.0,   20.7,  999.0,  999.0,  999.0,  999.0,  999.0,  999.0,  999.0,   20.8,  999.0,  999.0,  999.0,  999.0,  999.0,  999.0,  999.0,  999.0,  999.0,  999.0,  999.0,  999.0,  999.0
2001/03/28 07:00,  999.0,   -0.5,   -0.5,   -1.0,   -3.2,   -2.5,   -0.6,    0.2,    0.2,    1.2,    1.5,    0.2,   -0.5,    1.4,    0.7,    0.0,   -0.5,   -0.0,   -0.6,  999.0,  999.0,  999.0,  999.0,  999.0,  999.0,  999.0,  999.0,  999.0,  999.0,  999.0,  999.0,  999.0,  999.0,  999.0,  999.0,  999.0,  999.0,  999.0,  999.0,  999.0,  999.0,  999.0,  999.0,  999.0,  999.0,  999.0,  999.0,  999.0,  999.0,  999.0,  999.0,  999.0,  999.0,  999.0,  999.0,  999.0,  999.0,  999.0
2001/03/28 07:10,  999.0,    0.2,   -0.2,   -0.8,   -1.1,   -1.4,   -0.9,    1.0,   -3.2,    2.0,    2.3,   -0.3,   -1.9,    3.0,   -1.0,   -2.5,   -1.6,   -2.6,   -2.5,  999.0,  999.0,  999.0,  999.0,  999.0,  999.0,  999.0,   -5.7,  999.0,  999.0,  999.0,  999.0,  999.0,  999.0,  999.0,  999.0,  999.0,  999.0,  999.0,  999.0,  999.0,  999.0,  999.0,  999.0,  999.0,  999.0,  999.0,  999.0,  999.0,  999.0,  999.0,  999.0,  999.0,  999.0,  999.0,  999.0,  999.0,  999.0,  999.0
2001/03/28 07:20,  999.0,    1.7,    1.3,   -1.0,   -1.4,   -1.3,   -1.4,   -3.3,   -3.5,  999.0,    0.0,   -0.1,    1.6,    4.4,   -0.4,   -1.9,   -2.1,   -1.4,  999.0,  999.0,  999.0,  999.0,  999.0,  999.0,  999.0,  999.0,  999.0,  999.0,  999.0,  999.0,  999.0,  999.0,  999.0,  999.0,  999.0,  999.0,  999.0,  999.0,  999.0,  999.0,  999.0,  999.0,  999.0,  999.0,  999.0,  999.0,  999.0,  999.0,  999.0,  999.0,  999.0,  999.0,  999.0,  999.0,  999.0,  999.0,  999.0,  999.0
2001/03/28 07:30,  999.0,    1.8,    1.5,   -0.0,   -1.5,   -1.3,   -1.9,   -1.6,   -1.7,    2.1,   -1.4,   -0.4,    2.0,    4.0,   -0.3,   -3.5,   -3.3,   -3.2,  999.0,  999.0,  999.0,  999.0,  999.0,  999.0,  999.0,  999.0,  999.0,  999.0,  999.0,  999.0,  999.0,  999.0,  999.0,  999.0,  999.0,  999.0,  999.0,  999.0,  999.0,  999.0,  999.0,  999.0,  999.0,  999.0,  999.0,  999.0,  999.0,  999.0,  999.0,  999.0,  999.0,  999.0,  999.0,  999.0,  999.0,  999.0,  999.0,  999.0
2001/03/28 07:40,  999.0,    1.3,    1.3,   -0.2,   -0.5,   -0.6,    0.5,   -1.6,   -0.8,    0.7,   -0.8,   -0.6,    0.4,    5.1,    1.7,   -3.0,   -2.9,   -2.5,  999.0,  999.0,  999.0,  999.0,  999.0,  999.0,  999.0,  999.0,  999.0,  999.0,  999.0,  999.0,  999.0,  999.0,  999.0,  999.0,  999.0,  999.0,  999.0,  999.0,  999.0,  999.0,  999.0,  999.0,  999.0,  999.0,  999.0,  999.0,  999.0,  999.0,  999.0,  999.0,  999.0,  999.0,  999.0,  999.0,  999.0,  999.0,  999.0,  999.0
2001/03/28 07:50,  999.0,    0.6,    0.1,   -0.9,   -1.8,   -0.9,   -2.8,   -1.3,    0.7,    1.1,    0.6,    1.4,   -0.5,    4.5,    1.4,   -2.1,   -2.0,   -1.7,   -1.2,  999.0,  999.0,  999.0,  999.0,   -2.6,   -4.3,  999.0,  999.0,  999.0,  999.0,  999.0,  999.0,  999.0,  999.0,  999.0,  999.0,  999.0,  999.0,  999.0,  999.0,  999.0,  999.0,  999.0,  999.0,  999.0,  999.0,  999.0,  999.0,  999.0,  999.0,  999.0,  999.0,  999.0,  999.0,  999.0,  999.0,  999.0,  999.0,  999.0
2001/03/28 08:00,  999.0,    0.3,   -0.4,   -1.3,   -2.7,   -1.5,   -2.8,   -0.6,   -1.2,   -1.9,    1.3,    0.9,   -0.5,    3.1,    2.9,   -1.4,   -1.9,  999.0,  999.0,  999.0,  999.0,  999.0,  999.0,  999.0,  999.0,  999.0,  999.0,  999.0,  999.0,  999.0,  999.0,  999.0,  999.0,  999.0,  999.0,  999.0,  999.0,  999.0,  999.0,  999.0,  999.0,  999.0,  999.0,  999.0,  999.0,  999.0,  999.0,  999.0,  999.0,  999.0,  999.0,  999.0,  999.0,  999.0,  999.0,  999.0,  999.0,  999.0
2001/03/28 08:10,  999.0,    1.9,   -0.2,   -1.4,   -1.1,   -0.9,   -2.0,    0.5,   -1.7,    0.1,    0.1,    1.0,    0.5,    3.2,    2.6,   -1.1,   -2.3,   -1.0,  999.0,  999.0,  999.0,  999.0,  999.0,  999.0,  999.0,  999.0,  999.0,  999.0,  999.0,  999.0,  999.0,  999.0,  999.0,  999.0,  999.0,  999.0,  999.0,  999.0,  999.0,  999.0,  999.0,  999.0,  999.0,  999.0,  999.0,  999.0,  999.0,  999.0,  999.0,  999.0,  999.0,  999.0,  999.0,  999.0,  999.0,  999.0,  999.0,  999.0
2001/03/28 08:20,  999.0,   -0.7,   -2.2,   -1.3,   -3.0,   -2.1,   -1.3,    1.7,   -0.3,   -2.5,   -1.1,    1.5,    1.3,    2.0,    1.6,   -1.9,   -0.7,  999.0,  999.0,  999.0,  999.0,  999.0,  999.0,  999.0,  999.0,  999.0,  999.0,  999.0,  999.0,  999.0,  999.0,  999.0,  999.0,  999.0,  999.0,  999.0,  999.0,  999.0,  999.0,  999.0,  999.0,  999.0,  999.0,  999.0,  999.0,  999.0,  999.0,  999.0,  999.0,  999.0,  999.0,  999.0,  999.0,  999.0,  999.0,  999.0,  999.0,  999.0
2001/03/28 08:30,  999.0,   -0.8,   -0.9,   -1.5,   -3.9,   -3.3,   -3.3,   -1.3,   -1.5,   -2.1,   -0.8,   -1.1,   -0.4,    0.8,   -0.8,   -3.5,   -2.6,   -2.0,  999.0,  999.0,  999.0,  999.0,  999.0,  999.0,  999.0,  999.0,  999.0,  999.0,  999.0,  999.0,  999.0,  999.0,  999.0,  999.0,  999.0,  999.0,  999.0,  999.0,  999.0,  999.0,  999.0,  999.0,  999.0,  999.0,  999.0,  999.0,  999.0,  999.0,  999.0,  999.0,  999.0,  999.0,  999.0,  999.0,  999.0,  999.0,  999.0,  999.0
2001/03/28 08:40,  999.0,   -0.7,   -1.6,   -2.0,   -2.4,   -1.4,   -2.3,   -0.9,   -0.8,   -0.7,   -1.2,   -1.3,   -2.5,   -0.4,   -2.8,   -5.6,   -3.6,   -5.2,   -7.7,  999.0,  999.0,  999.0,  999.0,  999.0,  999.0,  999.0,  999.0,  999.0,  999.0,  999.0,  999.0,  999.0,  999.0,  999.0,  999.0,  999.0,  999.0,  999.0,  999.0,  999.0,  999.0,  999.0,  999.0,  999.0,  999.0,  999.0,  999.0,  999.0,  999.0,  999.0,  999.0,  999.0,  999.0,  999.0,  999.0,  999.0,  999.0,  999.0
2001/03/28 08:50,  999.0,   -3.5,   -2.3,   -3.9,   -4.0,   -3.4,   -1.4,   -0.8,   -2.1,   -2.2,   -3.1,   -2.4,   -2.0,   -1.2,   -3.6,   -5.6,   -4.0,   -4.9,   -7.3,   -8.8,  999.0,  999.0,  999.0,  999.0,   -6.2,  999.0,  999.0,  999.0,  999.0,  999.0,  999.0,  999.0,  999.0,  999.0,  999.0,  999.0,  999.0,  999.0,  999.0,  999.0,  999.0,  999.0,  999.0,  999.0,  999.0,  999.0,  999.0,  999.0,  999.0,  999.0,  999.0,  999.0,  999.0,  999.0,  999.0,  999.0,  999.0,  999.0
2001/03/28 09:00,  999.0,   -2.5,   -2.3,   -3.9,   -3.9,   -2.9,   -2.4,   -2.9,   -4.0,   -3.8,   -3.0,   -3.0,   -2.5,   -1.1,   -4.0,   -5.9,   -4.5,   -4.5,   -5.7,  999.0,  999.0,  999.0,  999.0,  999.0,  999.0,  999.0,  999.0,  999.0,  999.0,  999.0,  999.0,  999.0,  999.0,  999.0,  999.0,  999.0,  999.0,  999.0,  999.0,  999.0,  999.0,    3.7,  999.0,    2.5,    1.9,    0.9,    0.7,  999.0,    0.6,  999.0,    1.1,    0.8,    1.0,    1.0,  999.0,  999.0,  999.0,  999.0
2001/03/28 09:10,  999.0,   -1.3,   -1.9,   -4.1,   -4.1,   -3.5,   -2.5,   -2.2,   -3.8,   -4.1,   -3.5,   -3.3,   -2.5,   -2.4,   -3.9,   -5.1,   -5.7,   -4.6,   -6.7,   -9.0,  -10.3,  999.0,  999.0,  999.0,  999.0,  999.0,  999.0,  999.0,   -8.9,  999.0,  999.0,  999.0,  999.0,  999.0,  999.0,  999.0,  999.0,  999.0,  999.0,  999.0,  999.0,  999.0,  999.0,    0.8,  999.0,    0.7,  999.0,  999.0,    0.9,  999.0,  999.0,    0.5,  999.0,  999.0,  999.0,  999.0,  999.0,  999.0
2001/03/28 09:20,  999.0,   -0.1,   -2.0,   -3.0,   -4.9,   -4.3,   -3.2,   -1.9,   -3.9,   -3.8,   -3.6,   -3.2,   -3.5,   -2.6,   -3.2,   -4.9,   -5.6,   -5.2,   -6.8,   -8.0,  999.0,  999.0,  999.0,  999.0,  999.0,  999.0,  999.0,  999.0,  999.0,  999.0,  999.0,  999.0,  999.0,  999.0,  999.0,  999.0,  999.0,  999.0,  999.0,  999.0,  999.0,    2.3,  999.0,  999.0,  999.0,    1.0,  999.0,    0.7,  999.0,    0.6,    1.2,  999.0,  999.0,   -0.1,  999.0,  999.0,  999.0,    0.1
2001/03/28 09:30,  999.0,    1.1,    1.3,   -0.3,   -4.6,   -3.9,   -2.8,   -4.1,   -3.8,   -3.6,   -3.4,   -3.8,   -2.2,   -4.1,   -5.2,   -6.8,   -6.3,   -6.6,   -8.6,  -10.1,  -11.2,  999.0,  999.0,  999.0,  999.0,  999.0,  999.0,  999.0,  999.0,  999.0,  999.0,  999.0,  999.0,  999.0,  999.0,  999.0,  999.0,  999.0,  999.0,  999.0,  999.0,    2.9,    2.1,    1.5,    1.3,    1.9,    0.6,    0.6,  999.0,  999.0,  999.0,    0.5,  999.0,  999.0,  999.0,    0.5,    0.9,  999.0
2001/03/28 09:40,  999.0,    1.2,    0.9,   -1.2,   -4.4,   -2.2,   -1.6,   -4.4,   -3.7,   -3.0,   -2.3,   -3.6,   -2.3,   -2.6,   -4.0,   -5.4,   -4.6,   -5.1,   -7.0,   -8.0,   -9.3,  999.0,  999.0,  999.0,  999.0,  999.0,  999.0,  999.0,  999.0,  999.0,  999.0,  999.0,  999.0,  999.0,  999.0,  999.0,  999.0,  999.0,  999.0,  999.0,  999.0,  999.0,  999.0,  999.0,  999.0,  999.0,  999.0,  999.0,  999.0,  999.0,  999.0,  999.0,  999.0,  999.0,  999.0,  999.0,  999.0,    1.1
2001/03/28 09:50,  999.0,    2.1,    0.1,   -2.9,   -3.4,   -2.5,   -1.8,   -3.2,   -3.5,   -3.1,   -3.0,   -2.0,   -2.0,   -2.5,   -3.9,   -4.7,   -5.3,   -5.5,   -6.5,   -8.0,   -8.8,  999.0,  999.0,  999.0,  999.0,  999.0,  999.0,  999.0,  999.0,  999.0,  999.0,  999.0,  999.0,  999.0,  999.0,  999.0,  999.0,  999.0,  999.0,  999.0,  999.0,  999.0,  999.0,    2.3,  999.0,  999.0,    2.1,  999.0,  999.0,    0.6,  999.0,  999.0,    1.2,  999.0,    1.0,  999.0,  999.0,    0.8
2001/03/28 10:00,  999.0,    1.3,   -0.4,   -1.9,   -2.9,   -3.6,   -4.2,   -2.7,   -3.4,   -3.0,   -2.6,   -2.4,   -1.2,   -2.1,   -4.0,   -5.3,   -6.0,   -5.6,   -6.7,   -8.0,   -9.8,   -9.8,  999.0,  999.0,  999.0,  999.0,  999.0,  999.0,  999.0,  999.0,  999.0,  -29.3,  999.0,  999.0,  999.0,  999.0,  999.0,  999.0,  999.0,  999.0,  999.0,  999.0,  -20.9,  999.0,  999.0,  999.0,  999.0,  999.0,  999.0,  999.0,  999.0,  999.0,  999.0,  999.0,  999.0,  999.0,  999.0,  -20.8
2001/03/28 10:10,  999.0,   -0.6,   -0.2,   -2.1,   -2.5,   -3.6,   -2.2,   -2.1,   -2.4,   -2.4,   -2.3,   -1.0,    0.5,   -0.6,   -2.4,   -4.5,   -5.9,   -6.1,   -6.2,   -8.1,   -9.2,   -9.0,  999.0,  999.0,  999.0,  999.0,  999.0,  999.0,  999.0,  999.0,  999.0,  999.0,  999.0,  999.0,  999.0,  999.0,  999.0,  999.0,  999.0,  999.0,  999.0,  999.0,  -38.2,  999.0,  999.0,  999.0,  999.0,  999.0,  999.0,  999.0,  -41.3,  -41.6,  -41.9,  999.0,  999.0,  999.0,  -41.3,  -41.5
2001/03/28 10:20,  999.0,    1.7,    1.5,   -0.0,   -2.8,   -2.5,   -3.1,   -3.6,   -3.6,   -2.6,   -2.8,   -2.0,   -0.1,  999.0,   -3.6,   -5.1,   -5.8,   -6.0,   -5.9,   -5.3,   -7.4,  999.0,  999.0,  999.0,  999.0,  999.0,  999.0,  999.0,  999.0,  999.0,  999.0,  999.0,  999.0,  999.0,  999.0,  999.0,  999.0,  999.0,  999.0,  999.0,  999.0,  -41.9,  999.0,  999.0,  999.0,  -41.2,  999.0,  -41.6,  -42.0,  999.0,  -41.3,  999.0,  999.0,  999.0,  999.0,  -42.0,  999.0,  999.0
2001/03/28 10:30,  999.0,    2.0,    1.5,    1.3,   -0.3,   -1.5,   -2.9,   -4.5,   -3.9,   -3.7,   -3.3,   -3.2,   -2.1,  999.0,   -5.1,   -6.0,   -6.4,   -5.8,   -5.9,   -7.3,   -9.1,  999.0,  999.0,  999.0,  999.0,  999.0,  999.0,  999.0,  999.0,  999.0,  999.0,  999.0,  999.0,  999.0,  999.0,  999.0,  999.0,  999.0,  999.0,  999.0,  999.0,  999.0,  999.0,  -41.8,  -41.2,  999.0,  999.0,  -42.1,  -41.7,  -41.5,  999.0,  -41.8,  -42.0,  -42.2,  999.0,  -42.1,  -41.5,  999.0
2001/03/28 10:40,  999.0,    1.1,    1.3,    1.3,   -0.9,   -2.3,   -4.1,   -3.4,   -2.9,   -2.6,   -3.0,   -1.5,  999.0,    0.0,   -5.2,   -5.0,   -4.9,   -4.9,   -6.4,  999.0,  999.0,  999.0,  999.0,  999.0,  999.0,  999.0,  999.0,  999.0,  999.0,  999.0,  999.0,  999.0,  999.0,  999.0,  999.0,  999.0,  -37.0,  -37.6,  999.0,  999.0,  999.0,  999.0,  -42.2,  -41.0,  -41.6,  -41.6,  -41.4,  999.0,  -41.6,  999.0,  999.0,  -41.5,  999.0,  -42.1,  999.0,  999.0,  -41.5,  -42.1
2001/03/28 10:50,  999.0,    2.3,  999.0,    1.4,    0.2,   -3.3,   -3.0,   -1.9,   -1.5,   -1.0,   -1.3,    0.9,    2.9,    1.0,  999.0,   -4.6,   -4.9,   -5.2,   -6.1,   -6.4,  999.0,  999.0,  999.0,  999.0,  999.0,  999.0,  999.0,  999.0,  999.0,  999.0,  999.0,  999.0,  999.0,  999.0,  999.0,  999.0,  999.0,  999.0,  -41.9,  999.0,  -42.0,  -41.7,  999.0,  999.0,  -41.8,  -41.3,  -34.2,  999.0,  -41.6,  -42.4,  -42.1,  -42.4,  -42.4,  999.0,  999.0,  -42.2,  -42.6,  -41.1
2001/03/28 11:00,  999.0,    1.7,    2.6,    2.9,    2.8,   -0.1,   -1.4,   -1.7,   -2.1,   -1.6,   -1.6,   -0.5,    2.6,    2.5,   -0.2,   -3.9,   -3.4,   -3.4,   -4.8,   -9.3,  999.0,  999.0,  999.0,  999.0,  999.0,  999.0,  999.0,  999.0,  999.0,  999.0,  999.0,  999.0,  999.0,  999.0,  999.0,  999.0,  999.0,  999.0,  -41.6,  999.0,  999.0,  -41.3,  -42.4,  999.0,  999.0,  999.0,  -41.5,  999.0,  999.0,  -41.9,  999.0,  999.0,  999.0,  999.0,  999.0,  999.0,  -39.9,  999.0
2001/03/28 11:10,  999.0,  999.0,  999.0,  999.0,  999.0,  999.0,    0.3,   -3.5,   -3.8,   -2.8,   -2.2,   -2.2,    1.0,    0.9,    0.3,   -2.0,  999.0,   -4.2,   -5.3,   -5.2,  999.0,  999.0,  999.0,  999.0,  999.0,  999.0,  999.0,  999.0,  999.0,  999.0,  999.0,  999.0,  999.0,  999.0,  999.0,  999.0,  999.0,  999.0,  999.0,  999.0,  999.0,  999.0,  999.0,  999.0,  999.0,  999.0,  999.0,  999.0,  999.0,  999.0,  999.0,  999.0,  999.0,  999.0,  999.0,  999.0,  999.0,  999.0
2001/03/28 11:20,  999.0,  999.0,  999.0,  999.0,  999.0,  999.0,   -1.0,   -2.4,   -2.7,   -2.8,   -2.0,    2.1,    2.3,    1.4,   -0.0,  999.0,  999.0,  999.0,   -5.2,  999.0,  999.0,  999.0,  999.0,  999.0,  999.0,  999.0,  999.0,  999.0,  999.0,  999.0,  999.0,  999.0,  999.0,  999.0,  999.0,  999.0,  999.0,  999.0,  999.0,  999.0,  999.0,  999.0,  999.0,  999.0,  999.0,  999.0,  999.0,  999.0,  999.0,  999.0,  999.0,  999.0,  999.0,  999.0,  999.0,  999.0,  999.0,  999.0
2001/03/28 11:30,  999.0,  999.0,  999.0,  999.0,  999.0,  999.0,   -1.1,   -1.1,   -2.2,   -2.2,    1.2,    1.9,    2.2,    1.4,    0.5,  999.0,    0.7,   -2.2,   -3.5,  999.0,  999.0,   -5.4,   -4.1,  999.0,  999.0,  999.0,  999.0,  999.0,  999.0,  999.0,  999.0,  999.0,  999.0,  999.0,  999.0,  999.0,  999.0,  999.0,  999.0,  999.0,  -20.9,  999.0,  -21.2,  -21.0,  999.0,  999.0,  -21.7,  -20.4,  -21.1,  -20.5,  -20.9,  999.0,  -20.7,  999.0,  999.0,  999.0,  999.0,  -20.6
2001/03/28 11:40,  999.0,    1.8,    0.9,    1.1,    0.9,   -0.4,   -1.0,   -2.8,   -2.4,   -1.3,    0.9,    2.0,    2.4,    0.9,   -0.4,   -1.7,  999.0,    0.3,  999.0,  999.0,  999.0,  999.0,  999.0,  999.0,  999.0,  999.0,  999.0,  999.0,  999.0,  999.0,  999.0,  999.0,  999.0,  999.0,  999.0,  999.0,  999.0,  999.0,  999.0,  999.0,  999.0,  999.0,  999.0,  999.0,  999.0,  999.0,  999.0,  999.0,  999.0,  999.0,  999.0,  999.0,  999.0,  999.0,  999.0,  999.0,  999.0,  999.0
2001/03/28 11:50,  999.0,    0.3,    1.0,    1.4,    0.8,    0.6,    1.1,   -0.1,   -1.1,   -0.3,    0.9,    1.7,    1.7,    0.2,  999.0,  999.0,  999.0,  999.0,  999.0,  999.0,  999.0,  999.0,  999.0,  999.0,  999.0,  999.0,  999.0,  999.0,  999.0,  999.0,  999.0,  999.0,  999.0,  999.0,  999.0,  999.0,  999.0,  999.0,  999.0,  999.0,  999.0,  999.0,  999.0,  999.0,  999.0,  999.0,  999.0,  999.0,  999.0,  999.0,  999.0,  999.0,  999.0,  999.0,  999.0,  999.0,  999.0,  999.0
2001/03/28 12:00,  999.0,    1.3,   -0.3,    0.2,    0.4,    0.7,    0.5,    0.9,    0.3,    0.0,    1.0,    1.2,    1.1,    0.5,  999.0,   -1.8,  999.0,  999.0,  999.0,   -3.7,  999.0,  999.0,  999.0,  999.0,  999.0,  999.0,  999.0,  999.0,  999.0,  999.0,  999.0,  999.0,  999.0,  999.0,  999.0,  999.0,  999.0,  999.0,  999.0,  999.0,  999.0,  999.0,  999.0,  999.0,  999.0,  999.0,  999.0,  999.0,  999.0,  999.0,  999.0,   -0.9,  999.0,  999.0,  999.0,   -0.3,  999.0,   -0.7
2001/03/28 12:10,  999.0,    0.3,    0.5,    0.4,    0.8,    2.0,    1.6,    1.2,    1.4,    1.0,    1.3,    1.4,    2.0,    0.2,  999.0,  999.0,  999.0,  999.0,  999.0,  999.0,  999.0,  999.0,  999.0,  999.0,  999.0,  999.0,  999.0,  999.0,  999.0,  999.0,  999.0,  999.0,  999.0,  999.0,  999.0,  999.0,  999.0,  999.0,  999.0,  999.0,  999.0,  999.0,  999.0,  999.0,  999.0,  999.0,  999.0,  999.0,  999.0,  999.0,  999.0,  999.0,  999.0,  999.0,  999.0,  999.0,  999.0,  999.0
2001/03/28 12:20,  999.0,    3.0,    1.7,    2.0,    2.4,    1.0,    2.0,    1.0,    0.1,   -0.4,    0.6,    1.5,    1.0,   -0.2,   -0.4,   -1.7,   -0.5,  999.0,  999.0,  999.0,  999.0,  999.0,  999.0,  999.0,  999.0,  999.0,  999.0,  999.0,  999.0,  999.0,  999.0,   16.9,  999.0,   17.9,   16.2,   16.3,   12.9,  999.0,   20.6,   14.9,   20.3,  999.0,   20.2,  999.0,   15.9,   20.2,   20.4,   19.8,   13.8,   20.1,   14.0,   13.9,  999.0,  999.0,   11.0,   10.0,   20.2,  999.0
2001/03/28 12:30,  999.0,    2.2,    2.5,    1.7,    1.3,    1.4,    1.3,    0.8,    0.5,    0.7,    1.4,    0.7,    0.7,    0.2,   -0.1,  999.0,  999.0,  999.0,  999.0,  999.0,  999.0,  999.0,  999.0,  999.0,  999.0,  999.0,  999.0,  999.0,  999.0,  999.0,  999.0,  999.0,  999.0,  999.0,  999.0,  999.0,  999.0,  999.0,  999.0,  999.0,    0.9,    1.3,    1.3,    1.9,  999.0,  999.0,    1.0,    0.4,    1.0,  999.0,  999.0,    0.9,    0.4,    1.5,    0.9,    0.2,    0.3,    1.4
2001/03/28 12:40,  999.0,    1.6,    1.7,    0.7,    1.0,    0.6,    0.8,    1.0,    0.8,    0.8,    0.5,   -0.2,   -0.1,   -0.0,  999.0,  999.0,  999.0,  999.0,  999.0,  999.0,  999.0,  999.0,  999.0,  999.0,  999.0,  999.0,  999.0,  999.0,  999.0,  999.0,  999.0,    0.8,  999.0,  999.0,    1.2,  999.0,    1.1,  999.0,    0.4,    0.2,  999.0,    0.3,    0.3,    0.6,    1.2,    0.4,  999.0,    0.8,    1.7,    0.8,    1.1,  999.0,    1.1,    0.7,  999.0,  999.0,  -10.4,  999.0
2001/03/28 12:50,  999.0,    5.0,    5.1,    4.3,    3.5,    2.2,    1.7,    1.6,    2.0,    1.6,    1.1,    1.9,    1.1,    0.5,   -2.2,   -1.8,  999.0,  999.0,  999.0,  999.0,  999.0,  999.0,  999.0,  999.0,  999.0,  999.0,  999.0,  999.0,  999.0,  999.0,  999.0,    4.8,    1.8,    1.5,    0.8,  999.0,    0.8,    0.9,    1.0,    0.9,    0.6,  999.0,  999.0,  999.0,    0.7,    1.0,   -9.5,    0.8,    0.8,    1.2,  999.0,  999.0,    0.6,  999.0,    0.5,    1.0,    1.0,  999.0
2001/03/28 13:00,  999.0,    5.1,  999.0,    0.7,    1.8,    1.3,    1.8,    1.6,    1.2,    1.2,    1.4,    2.4,    2.5,    0.5,   -0.8,   -1.2,    0.5,  999.0,  999.0,  999.0,    7.3,  999.0,  999.0,  999.0,  999.0,  999.0,  999.0,  999.0,  999.0,   13.6,    8.4,  999.0,    4.9,    5.3,    2.9,    1.9,    1.6,    1.0,    0.7,  999.0,    0.5,    0.5,    0.5,    0.5,  999.0,    0.4,  999.0,    0.3,    0.5,    0.4,  999.0,    0.9,    0.5,    0.7,    0.5,    0.8,  999.0,    0.7
2001/03/28 13:10,  999.0,    1.2,    2.7,    2.5,    2.9,    1.6,    1.6,    1.8,    1.7,    1.2,    1.2,    2.1,    2.7,    2.2,    0.4,   -0.7,   -1.1,   -2.5,   -3.7,   -0.9,  999.0,   -5.7,   -6.1,  999.0,  999.0,  999.0,  999.0,  999.0,  999.0,  999.0,  999.0,  999.0,  999.0,  999.0,  999.0,    1.6,  999.0,  999.0,    0.8,    1.0,  -13.1,  999.0,  -13.1,    3.1,   -4.4,    0.6,    0.1,  -20.5,   13.3,  999.0,  -13.6,  999.0,  -13.3,  999.0,  999.0,  999.0,    0.6,    1.1
2001/03/28 13:20,  999.0,    0.8,    1.4,    1.2,    1.4,    1.4,    1.4,    2.2,    2.5,    1.8,    1.3,    1.1,    1.1,    1.4,   -0.1,   -1.0,   -1.5,   -1.7,  999.0,   -2.7,  999.0,  999.0,  999.0,  999.0,  999.0,  999.0,  999.0,  999.0,  999.0,  999.0,  999.0,  999.0,  999.0,  999.0,  999.0,  999.0,    2.2,    1.0,    0.7,    1.3,  999.0,    0.7,  999.0,    0.6,  999.0,    0.6,    0.8,    0.2,    0.3,    0.9,    0.9,    1.1,    0.4,    1.1,    0.5,    0.5,    0.6,  999.0
2001/03/28 13:30,  999.0,    2.2,    2.4,    2.5,    2.8,    3.1,    3.2,    3.4,    3.0,    3.4,    3.1,    2.6,    2.1,    0.7,   -0.9,   -2.2,   -3.7,  999.0,  999.0,  999.0,  999.0,  999.0,  999.0,  999.0,    1.0,  999.0,  999.0,  999.0,   -2.9,  999.0,  999.0,  999.0,  999.0,  999.0,  999.0,    2.3,    1.2,    0.4,    0.4,    0.5,    0.3,    0.7,  999.0,  999.0,    1.3,    0.7,    0.9,    1.0,    0.9,    0.7,    1.0,    1.3,    1.0,  999.0,    0.3,    0.8,  999.0,    0.8
2001/03/28 13:40,  999.0,    4.2,    4.2,    4.5,    3.4,    3.2,    3.9,    4.1,    3.4,    3.2,    3.6,    2.9,    1.5,    1.5,    0.0,  999.0,   -1.8,   -4.6,   -6.6,   -7.7,   -8.6,   -8.3,   -8.7,   -9.7,  -10.0,  999.0,   -5.6,  999.0,   -8.7,   -8.0,  999.0,    7.0,    5.1,    5.6,    3.5,    3.2,  -11.4,   -8.4,  999.0,  999.0,  -13.7,  999.0,  -22.9,  -15.0,  -21.1,  -13.9,  -10.1,  999.0,  -20.4,   -9.8,  -13.5,  -20.7,  999.0,  -14.1,  999.0,  -13.8,  -20.8,  -14.4
2001/03/28 13:50,  999.0,    4.9,    5.4,    2.7,    3.4,   -6.2,   -0.3,    0.2,    2.9,    2.9,    2.9,    2.6,    2.0,    1.1,   -0.5,   -5.9,   -2.8,   -1.9,   -1.8,   -1.5,   -0.3,   -5.6,   -1.9,    2.7,    3.5,    3.9,    4.5,   -1.1,   -1.4,   -2.1,   -1.5,   -0.8,   -1.3,   -0.9,   -0.7,   -0.7,   -0.7,   -0.8,   -5.6,   -0.6,   -0.6,   -0.7,   -0.9,   -1.4,   -2.4,   -2.5,   -2.6,   -2.6,   -2.7,   -3.8,   -4.2,   -3.8,   -3.5,   -3.8,   -3.2,   -0.9,    1.3,    1.7
2001/03/28 14:00,  999.0,    6.0,  999.0,    4.8,    2.3,   -1.3,    0.3,    1.4,    2.5,    3.5,    3.2,    3.2,    3.0,    2.2,    2.4,    2.4,    2.3,    1.9,    1.0,    0.2,    0.1,    0.4,    0.0,   -0.4,    0.1,    0.3,   -1.0,   -1.0,   -1.8,   -2.7,   -2.9,   -2.3,   -2.4,   -2.1,   -2.2,   -2.0,   -2.3,   -2.3,   -2.6,   -2.5,   -2.8,   -2.4,   -2.5,   -2.5,   -2.4,   -2.5,   -2.6,   -2.8,   -3.0,   -3.4,   -4.0,   -4.6,   -4.6,   -4.8,   -5.2,   -4.7,   -5.2,   -4.6
2001/03/28 14:10,  999.0,    4.4,    3.6,    3.9,    4.1,    3.4,    4.2,    4.3,    4.7,    5.5,    4.5,    4.4,    3.9,    3.0,    0.8,    1.5,    1.0,   -0.3,   -1.0,   -0.7,   -0.7,   -1.6,   -2.0,   -1.7,   -1.2,   -1.2,   -2.3,   -2.6,   -3.8,   -4.4,   -4.3,   -4.5,   -4.9,   -6.0,   -5.8,   -5.8,   -4.6,   -4.7,   -3.2,   -3.0,   -2.9,   -2.8,   -2.9,   -2.6,   -2.3,   -1.3,   -1.5,   -1.8,   -2.7,   -3.2,   -3.5,   -3.6,   -2.5,   -2.1,   -2.4,   -1.8,    0.5,   -0.5
2001/03/28 14:20,  999.0,    4.6,    4.6,    4.4,    4.7,    5.4,    6.7,    7.1,    6.6,    7.1,    7.2,    3.6,   -0.7,    1.2,    1.5,    0.9,   -0.3,   -0.3,   -0.4,    0.4,    1.3,    2.9,    1.5,    1.4,    1.7,    1.3,   -2.9,    8.2,    8.9,    5.9,    5.3,    5.3,    7.8,    8.9,    7.6,    9.8,    9.5,   10.6,    8.8,    6.2,  999.0,  999.0,  999.0,    7.7,    8.9,   11.9,   13.3,   13.4,   12.4,   12.1,   11.7,   12.6,   11.5,   11.5,   11.0,   11.7,   11.9,   13.2
2001/03/28 14:30,  999.0,    2.8,    1.9,    4.2,    1.8,    4.5,    4.0,    4.1,    3.7,    4.5,    4.7,    4.1,    4.5,    0.5,   -2.5,   -7.7,   -5.4,  -10.3,  -22.3,  -16.9,  -17.4,  -14.8,  -18.8,  -19.3,  -20.9,  -23.1,  -22.1,  -22.4,  -23.1,  -24.4,  -25.5,  -26.8,  -28.3,  -29.1,  -30.1,  -32.0,  -30.9,  -32.2,  -38.6,  -37.0,  -38.6,  -39.5,  -41.4,  -38.8,  -40.4,  -39.0,  -40.3,  -40.6,  -41.4,  -41.0,  -41.8,  -42.3,  -41.5,  -42.2,  999.0,  -42.0,  -41.6,  999.0
2001/03/28 14:40,  999.0,    5.1,    5.3,    4.9,    4.9,    5.0,    5.1,    5.4,    4.9,    3.5,    3.6,    3.8,   -1.8,   -0.4,   -6.8,   -8.6,   -9.6,   -8.3,  -10.8,  -13.8,  -11.2,  -12.7,  -14.4,  999.0,  -15.3,  -15.9,  -16.3,  -19.6,  -20.4,  -16.2,   -3.9,  -12.7,  999.0,  999.0,  999.0,  -22.8,  -21.3,  -31.1,  999.0,  999.0,  -25.1,  -28.9,  -26.0,  -20.2,  -27.8,  -28.8,  -23.1,  -35.0,  -35.4,  999.0,  -37.5,  -38.6,  -39.5,  999.0,  999.0,  -39.4,  -37.6,  -35.8
2001/03/28 14:50,  999.0,    8.1,    6.8,    6.2,    5.9,    5.5,    5.1,    3.8,    5.0,    3.3,    2.8,    1.1,   -1.1,   -3.8,    1.8,    1.5,   -0.2,   -1.4,   -2.9,   -2.3,   -1.7,   -1.8,   -0.4,   -4.6,  999.0,  999.0,   -6.3,  999.0,  999.0,   -9.9,  -10.7,   -9.5,  999.0,  999.0,  -12.2,  999.0,  999.0,  999.0,  999.0,  999.0,  -38.6,  -38.5,  -40.1,  -40.6,  999.0,  -41.1,  -41.4,  -41.5,  -41.1,  -40.9,  999.0,  -42.1,  -42.1,  -42.5,  -42.1,  -42.5,  -42.1,  999.0
2001/03/28 15:00,  999.0,    6.7,    7.2,    8.2,    7.0,    4.8,    5.5,    6.8,    4.7,    4.8,    4.4,    2.6,    1.3,    1.0,    0.7,   -0.1,   -1.3,   -1.9,   -1.8,   -1.5,    0.5,    2.5,    1.6,   10.1,    8.8,   10.8,  999.0,   10.4,    6.6,    8.4,    7.6,   -2.1,   -3.9,    9.1,    6.9,    0.8,    7.9,    5.4,    4.8,    5.2,    8.7,  999.0,    4.8,   -2.4,   -1.5,    6.8,   -0.5,   -0.8,  999.0,   -0.7,   -1.3,   -1.8,   -3.7,   -2.0,  999.0,   -3.1,  -11.7,  -20.6
2001/03/28 15:10,  999.0,  999.0,  999.0,  999.0,  999.0,  -10.7,   -9.3,   -1.1,   -3.4,   -3.9,   -1.6,    1.0,   -2.1,   -1.6,   -1.2,    1.5,    2.4,    0.9,    1.8,    1.6,    0.2,    0.4,   -0.0,    0.5,   -0.1,    0.1,   -0.1,    0.8,   -0.9,    6.0,   10.7,    8.7,    6.2,    7.9,    8.3,    9.5,   10.2,    7.9,   -1.8,    0.6,  999.0,  999.0,  999.0,  999.0,  999.0,  999.0,  999.0,  -16.0,  -11.5,  999.0,  -17.5,  999.0,  999.0,  999.0,  -10.1,  999.0,  999.0,  999.0
2001/03/28 15:20,  999.0,  999.0,   12.5,   13.5,   11.0,   12.3,   12.2,   14.6,   14.1,   12.0,   12.5,   13.2,   12.3,   10.7,   10.1,    6.0,    4.8,    4.0,    6.1,    7.2,    2.2,   -1.5,   -0.5,    1.7,    0.8,   -0.8,    1.0,    1.9,   -7.4,   -4.7,   -1.8,   -0.5,   -7.3,  -11.8,   -5.9,  999.0,  999.0,    2.3,    1.7,   -1.4,   -1.0,   -3.3,  999.0,   -4.6,  999.0,    3.8,    4.5,   -2.7,    3.2,   -4.0,  999.0,  -20.4,  -17.5,  -19.5,  -19.5,  -29.1,  -33.5,  -25.9
2001/03/28 15:30,  999.0,   -6.2,   -5.7,   -4.9,   -3.6,    2.2,    3.5,    6.6,   10.5,   14.4,   15.0,   18.3,   22.2,   11.0,   10.3,    9.7,    3.6,    4.0,    2.5,    1.0,    1.6,    1.4,    1.8,    1.9,    2.5,    2.9,   -0.5,    0.8,   -1.3,   -2.1,   -2.9,   -3.3,   -0.9,   -3.5,   -4.4,   -3.8,   -4.9,   -6.0,   -5.7,   -5.3,   -9.1,   -8.8,   -9.2,  -15.3,  -18.3,  -16.2,  -13.8,  -13.1,   -3.0,   -1.7,   -2.0,    5.1,    7.0,   -0.2,   -0.8,    2.3,    0.5,   -3.4
2001/03/28 15:40,  999.0,   10.3,    8.8,    9.3,   10.0,    9.4,    7.6,    8.1,    8.5,    7.8,    6.4,    3.8,    3.7,    4.6,    4.4,    4.4,    2.9,    1.2,    1.0,    1.6,    2.1,    0.9,   -0.4,   -1.8,   -2.9,   -3.7,   -4.2,   -5.3,   -6.2,   -6.6,   -7.1,   -7.4,   -8.5,   -7.8,   -6.7,   -7.1,   -4.2,   -1.4,    0.0,   -0.6,    5.9,    9.5,   10.9,   10.2,    5.9,    3.6,    9.5,  999.0,   12.9,    3.4,   10.9,   10.2,    9.7,    6.9,    4.4,    7.0,    5.7,    7.6
2001/03/28 15:50,  999.0,    7.1,    7.0,    7.4,    8.1,    8.9,    9.3,   10.0,    9.0,    8.0,    6.0,    3.0,    1.0,   -0.2,   -0.9,   -1.2,   -2.5,   -3.2,   -2.7,   -2.6,   -3.0,   -3.3,   -3.6,   -4.3,   -5.6,   -6.8,   -9.3,  -11.4,  -13.1,  -13.7,  -15.2,  -14.2,  -15.5,  -13.2,  -12.4,  -11.1,   -8.6,   -8.3,   -5.8,   -5.5,   -5.3,   -3.6,   -4.3,   -4.1,   -4.2,   -4.8,   -5.8,   -5.5,   -6.1,   -3.4,   -1.3,   -2.5,   -3.6,   -3.4,   -5.9,   -3.7,   -3.1,   -4.8
2001/03/28 16:00,  999.0,    7.0,    6.2,    7.1,    7.8,    8.1,    8.7,    8.4,    7.8,    7.1,    6.1,    5.6,    5.0,    5.1,    5.9,    5.9,    5.3,    4.6,    4.4,    4.0,    3.3,    2.5,   -0.7,   -1.6,   -2.1,   -1.5,   -1.3,   -1.3,   -1.1,   -1.3,   -1.4,    0.1,    1.4,    0.5,    2.6,    3.4,    4.5,    4.4,    4.9,    5.5,    6.0,    4.6,    3.9,    0.6,   -1.2,   -1.8,   -3.2,   -3.6,   -4.1,   -3.9,   -3.0,   -3.0,   -4.3,   -5.6,   -7.4,   -8.5,   -8.8,   -9.1
2001/03/28 16:10,  999.0,   10.3,    9.2,    7.4,    6.5,    6.6,    6.4,    6.0,    5.7,    5.4,    5.3,    4.8,    5.2,    6.1,    7.3,    5.9,    4.0,    2.4,   -0.6,   -2.0,   -2.1,   -2.4,   -1.5,   -0.4,    0.5,    1.0,    0.9,    1.3,    1.7,    1.7,    1.7,    1.4,    1.3,    2.4,    3.5,    4.8,    5.1,    4.5,    3.5,    2.8,    3.0,    3.0,    3.0,    2.4,    2.2,    1.6,    0.5,   -0.6,   -1.0,   -1.2,   -1.3,   -2.2,   -2.0,   -0.8,   -3.0,   -2.0,   -1.8,   -2.4
2001/03/28 16:20,  999.0,   11.0,   11.0,    9.1,    7.3,    6.1,    6.5,    7.4,    7.6,    7.3,    7.5,    7.4,    7.2,    6.6,    5.8,    5.1,    4.1,    2.2,    1.0,   -0.6,   -1.7,   -2.3,   -2.4,   -2.7,   -3.0,   -2.9,   -2.6,   -1.8,   -1.5,   -0.8,   -0.5,   -0.5,    0.0,   -0.0,    0.6,    0.7,    1.1,    1.5,    1.4,    0.5,    0.7,    0.1,   -0.4,   -0.2,    0.2,    0.1,   -0.4,   -1.3,   -1.5,   -4.9,   -6.4,   -6.3,   -6.2,   -7.1,   -7.8,   -9.2,   -9.6,   -9.3
2001/03/28 16:30,  999.0,   11.4,   11.1,   10.0,    6.4,    6.0,    5.7,    6.4,    6.2,    6.9,    6.1,    6.8,    7.3,    6.9,    5.5,    5.5,    4.0,    3.8,    3.4,    3.0,    2.6,    1.8,    1.2,   -0.2,   -1.2,   -2.0,   -2.2,   -2.4,   -2.8,   -2.5,   -2.1,   -1.7,   -1.0,   -0.9,   -1.0,   -1.4,   -1.5,   -1.7,   -1.6,   -1.8,   -1.3,   -0.5,    0.4,    0.7,    0.4,    0.2,    1.4,    2.3,    2.1,    2.0,    1.5,    0.2,   -1.2,   -1.8,   -1.7,   -1.5,   -1.0,   -0.5
2001/03/28 16:40,  999.0,   11.5,   10.0,    7.6,    6.4,    5.6,    5.5,    5.3,    5.5,    6.0,    6.3,    6.6,    6.7,    6.6,    5.7,    4.7,    4.1,    3.9,    4.1,    3.9,    4.0,    4.3,    3.7,    2.4,    1.7,    1.4,    1.5,    1.7,    1.9,    2.8,    2.9,    3.2,    3.8,    4.0,    3.4,    3.4,    3.6,    3.1,    2.5,    2.4,    2.2,    3.3,    3.6,    1.7,   -0.1,   -1.2,   -1.3,   -1.1,   -0.6,   -0.2,   -0.1,   -0.5,   -0.6,   -0.5,   -0.5,   -0.7,   -0.8,   -0.7
2001/03/28 16:50,  999.0,   10.1,    8.9,    7.7,    6.2,    5.2,    4.2,    3.3,    3.1,    3.9,    4.5,    4.5,    5.0,    5.3,    5.2,    4.3,    5.3,    4.6,    4.1,    3.8,    2.3,    3.3,    2.8,    1.7,    1.0,    0.6,   -0.2,   -0.3,    0.3,    1.8,    3.0,    2.4,    1.8,    2.3,    2.6,    2.5,    3.0,    3.2,    3.8,    3.6,    3.6,    7.0,    7.6,    3.7,    2.1,    1.5,    0.1,   -0.0,    0.0,   -0.1,   -0.3,   -0.3,   -0.4,   -1.6,   -3.4,   -4.2,   -4.6,   -5.2
2001/03/28 17:00,  999.0,    9.4,    8.3,    7.1,    4.5,    3.9,    2.6,    2.9,    3.6,    4.9,    5.8,    6.2,    6.5,    6.7,    6.0,    5.6,    5.1,    4.5,    4.0,    4.0,    3.5,    3.0,    2.8,    2.0,    0.8,    0.3,    0.4,    0.2,    0.0,    0.8,    2.0,    2.3,    1.8,    1.8,    1.6,    1.2,    1.1,    1.8,    2.5,    2.6,    3.5,    1.8,    0.8,    1.3,   -0.2,   -2.4,   -1.5,   -1.6,   -2.9,   -4.2,   -5.5,   -5.7,   -2.9,   -3.3,   -5.9,   -4.0,   -6.1,   -4.2
2001/03/28 17:10,  999.0,    8.7,    9.0,    7.9,    6.2,    4.5,    3.5,    3.4,    3.9,    4.3,    5.1,    5.6,    6.0,    6.0,    6.0,    5.5,    5.0,    4.3,    3.7,    2.7,    2.0,    1.8,    1.6,    0.8,   -0.5,   -0.9,   -0.5,   -0.2,    0.1,    0.2,    0.5,    1.1,    1.5,    1.7,    1.4,    1.1,    1.5,    2.1,    2.1,    1.5,    0.9,    0.5,    0.6,    2.1,   -1.5,   -1.8,   -4.3,   -4.5,   -3.7,   -4.0,   -4.7,   -4.9,   -4.6,   -4.5,   -5.7,   -5.7,   -6.1,   -5.5
2001/03/28 17:20,  999.0,    7.0,    7.4,    7.9,    6.6,    5.1,    4.1,    3.0,    3.7,    4.3,    4.8,    5.5,    5.7,    5.8,    5.4,    4.8,    4.0,    3.4,    2.8,    2.4,    2.0,    1.4,    0.4,   -0.7,   -1.5,   -1.6,   -1.9,   -1.9,   -1.4,   -0.6,    0.1,    0.8,    1.1,    1.0,    1.0,    0.9,    1.6,    2.3,    1.7,    1.2,    1.5,    1.8,    3.3,    3.4,    2.5,    1.9,    0.1,   -0.5,   -0.5,   -1.4,   -2.0,   -3.1,   -4.4,   -6.3,   -7.4,   -7.9,   -8.2,   -8.0
2001/03/28 17:30,  999.0,    4.0,    4.7,    6.5,    6.7,    5.2,    4.3,    4.3,    4.7,    4.4,    4.1,    4.8,    5.1,    6.0,    5.4,    4.8,    4.4,    3.9,    2.9,    2.1,    1.9,    1.6,    0.8,   -0.3,   -1.5,   -1.6,   -1.0,   -0.4,    0.2,    0.3,    1.3,   -0.6,   -1.0,   -0.9,   -0.9,   -0.2,    0.4,    0.7,    1.0,    0.9,    0.8,    2.9,    3.6,    1.9,    2.7,    1.8,    0.3,   -0.9,   -1.9,   -2.6,   -3.1,   -4.2,   -4.7,   -5.2,   -4.9,   -5.4,   -6.4,   -7.1
2001/03/28 17:40,  999.0,    2.6,    4.4,    5.9,    5.3,    4.2,    4.0,    3.9,    2.8,    2.8,    4.2,    5.2,    6.0,    6.1,    5.1,    4.4,    3.6,    2.7,    1.6,    0.9,    0.9,    1.1,    0.7,   -1.0,   -1.4,   -1.1,   -2.2,   -1.1,   -0.3,    0.1,   -0.1,   -0.6,   -1.0,   -0.8,   -0.3,    1.1,    1.7,    2.2,    2.8,    2.9,    3.2,    3.3,    3.0,    1.9,    1.8,    1.2,    0.4,   -1.1,   -2.7,   -4.4,   -5.1,   -5.0,   -5.6,   -6.1,   -6.2,   -7.4,   -8.2,   -9.3
2001/03/28 17:50,  999.0,    1.7,    5.0,    5.3,    4.1,    4.3,    4.6,    4.4,    3.9,    3.8,    4.5,    4.6,    5.8,    5.1,    3.9,    1.1,    0.7,    0.4,   -0.0,    0.6,    0.8,    0.7,    0.3,   -2.9,   -3.9,   -4.6,   -4.1,   -1.4,   -0.7,   -0.2,   -2.5,   -2.2,   -1.8,   -1.4,   -1.1,   -0.1,    0.7,    0.9,    1.3,    0.6,   -1.3,    0.6,    2.9,    2.2,    1.8,    1.4,    0.1,   -1.8,   -3.7,   -4.8,   -5.3,   -5.6,   -6.0,   -6.9,   -7.8,   -8.5,   -8.8,   -8.5
2001/03/28 18:00,  999.0,    2.1,    3.3,    1.3,    0.2,    1.7,    1.9,    2.1,    1.3,    2.0,    3.1,    3.4,    4.2,    4.8,    4.9,    4.2,    3.6,    2.9,    2.0,    1.3,    2.1,    2.2,    1.5,    1.2,   -0.2,   -1.2,   -0.7,    0.1,    0.6,    1.3,    0.9,    0.7,    0.3,    1.1,    0.7,    0.9,    0.8,    0.6,    0.2,   -1.3,   -1.7,   -1.5,    2.0,    4.5,    2.6,    0.6,   -1.8,   -2.9,   -4.4,   -5.9,   -6.7,   -7.0,   -7.9,   -9.5,  -10.8,  -11.4,  -11.7,  -11.1
2001/03/28 18:10,  999.0,    0.3,    1.7,    3.0,    2.5,    2.0,    1.0,    0.6,    1.7,    2.4,    2.9,    3.5,    3.6,    3.4,    3.8,    3.5,    3.6,    2.9,    2.7,    0.8,    3.7,    2.1,    1.7,    2.0,    0.7,   -0.2,   -1.0,   -0.6,    0.3,   -0.1,   -0.2,   -0.5,   -0.5,   -0.9,   -0.9,   -0.7,   -0.9,   -0.4,   -1.0,   -1.3,   -1.0,    0.9,    4.1,  999.0,    1.1,   -0.2,   -1.7,   -3.1,   -5.2,   -6.8,   -8.0,   -8.8,   -9.4,  -10.5,  -11.0,  -12.0,  -11.7,  -11.0
2001/03/28 18:20,  999.0,    1.2,    2.3,    2.8,    2.0,    1.8,    1.8,    1.8,    3.3,    4.0,    4.8,    4.8,    5.1,    5.6,    5.6,    4.2,    2.6,    2.1,    1.8,    1.7,    1.9,    1.8,    1.3,    0.4,   -0.5,   -0.5,   -0.0,    0.6,    1.1,    1.2,    1.2,    1.5,    1.3,    0.9,    1.2,    1.4,    1.2,    1.2,   -0.2,   -1.2,    0.7,    2.8,  999.0,  999.0,    0.3,   -2.0,   -3.5,   -5.7,   -7.0,   -7.6,   -7.7,   -7.5,   -7.4,   -7.7,   -8.0,   -8.4,   -8.6,   -8.7
2001/03/28 18:30,  999.0,    1.0,    0.7,    0.4,    0.6,    0.6,    1.1,    2.2,    2.6,    2.8,    3.4,    3.8,    3.9,    3.9,    3.1,    2.4,    2.2,    1.6,    1.1,    1.1,    1.0,    1.2,    0.7,   -0.5,   -1.6,   -1.4,   -0.6,   -0.5,   -0.6,   -0.8,   -1.0,   -0.5,   -0.2,    0.2,    0.7,    0.4,    0.1,   -1.2,   -2.6,   -2.0,   -0.3,    3.2,  999.0,  999.0,   -0.9,   -2.4,   -3.9,   -4.4,   -4.4,   -4.6,   -5.3,   -6.0,   -6.5,   -6.8,   -7.1,   -7.6,   -8.0,   -8.1
2001/03/28 18:40,  999.0,    0.3,   -0.0,   -0.3,   -0.1,    0.4,    1.9,    2.8,    3.1,    3.2,    3.7,    3.5,    3.4,    2.5,    1.7,    1.6,    1.5,    1.1,    0.6,    0.4,    0.2,    0.5,    0.3,   -0.8,   -1.7,   -1.5,   -0.6,   -0.7,   -0.4,   -0.6,   -0.5,   -0.3,    0.1,    0.7,    1.2,    1.3,    0.8,   -0.2,   -0.5,    0.7,    1.8,    3.0,  999.0,  999.0,   -1.2,   -1.7,   -1.9,   -1.8,   -2.3,   -3.3,   -4.6,   -5.5,   -6.1,   -6.7,   -7.2,   -7.1,   -7.2,   -7.3
2001/03/28 18:50,  999.0,    0.4,    0.3,    0.2,    0.2,    0.9,    2.4,    3.2,    4.1,    4.0,    3.7,    3.5,    3.5,    2.8,    2.2,    2.0,    1.5,    1.4,    1.4,    1.5,    1.7,    1.7,    1.3,    0.7,    0.5,    0.7,    0.9,    0.5,    0.3,    0.3,    0.1,    0.0,    0.3,    0.7,    0.6,   -0.0,   -0.9,   -1.1,   -0.3,    0.3,    1.6,  999.0,    0.5,  999.0,   -2.3,   -2.8,   -3.1,   -3.2,   -3.3,   -3.3,   -3.3,   -3.7,   -4.7,   -5.6,   -6.3,   -6.9,   -7.0,   -7.4
2001/03/28 19:00,  999.0,    0.4,    0.4,    0.6,    0.4,    0.7,    1.5,    2.8,    3.9,    4.4,    4.0,    4.1,    4.4,    3.7,    3.0,    2.2,    1.5,    1.5,    1.6,    1.7,    1.7,    1.5,    1.4,    1.3,    0.9,    1.0,    0.9,    0.9,    0.6,    0.5,    0.7,    0.6,    0.8,    1.2,    0.9,    0.3,    0.1,    0.9,    0.8,    0.2,    0.2,  999.0,  999.0,    1.0,   -0.0,   -0.9,   -1.7,   -2.1,   -3.0,   -4.2,   -5.4,   -6.4,   -7.4,   -8.1,   -8.9,   -8.7,   -9.3,  -10.0
2001/03/28 19:10,  999.0,    0.3,    1.0,    1.7,    1.1,    1.4,    2.1,    2.7,    3.2,    4.4,    4.4,    3.7,    3.9,    3.5,    2.4,    1.2,    0.2,    0.3,    0.5,    0.5,    0.4,    0.3,    0.5,    0.8,    0.5,    0.4,    0.5,    0.6,    0.5,   -0.1,    0.5,    0.2,    0.2,    0.5,   -0.0,   -0.7,   -1.0,   -1.0,   -0.7,   -0.6,    0.1,    3.2,    2.8,    1.1,    0.1,   -1.0,   -1.7,   -2.4,   -3.1,   -4.1,   -4.4,   -4.8,   -5.8,   -7.0,   -8.3,   -9.1,  -10.0,  -10.8
2001/03/28 19:20,  999.0,   -1.2,   -1.2,    0.3,    1.4,    0.7,    0.5,    1.7,    2.5,    3.1,    4.2,    4.4,    3.6,    3.2,    2.5,    1.6,    1.1,    1.1,    0.7,    0.3,    0.3,    0.5,    0.6,    0.5,    0.4,    0.2,    0.2,    0.1,    0.2,   -0.3,   -0.6,   -0.5,   -0.5,   -0.5,   -1.6,   -2.5,   -2.4,   -2.3,   -2.3,   -2.5,   -1.6,    0.3,  999.0,    0.4,    0.2,   -0.4,   -1.2,   -2.1,   -3.0,   -3.2,   -4.0,   -4.9,   -6.0,   -8.1,   -9.6,   -9.6,  -10.2,  -10.3
2001/03/28 19:30,  999.0,    0.2,    0.3,    0.6,    0.9,    1.0,    0.7,    1.6,    2.6,    3.0,    3.8,    4.3,    4.4,    3.6,    3.2,    3.1,    2.1,    1.8,    1.9,    1.4,    1.2,    1.5,    0.1,   -1.4,    0.6,    1.8,   -0.6,    0.8,    0.8,   -0.3,   -1.4,   -1.3,   -0.8,    0.3,   -0.3,   -1.8,   -1.8,   -3.9,   -5.0,   -5.8,   -5.9,   -3.4,   -0.4,   -0.7,   -0.5,   -0.2,   -1.4,   -2.1,   -2.6,   -3.6,   -4.8,   -6.0,   -7.3,   -8.3,   -8.5,   -8.8,   -9.5,  -10.0
2001/03/28 19:40,  999.0,    0.7,    1.4,    0.7,    1.4,    2.0,    1.2,    0.9,    1.9,    2.0,    2.8,    3.2,    2.2,    2.1,    1.6,    3.3,    2.4,    0.7,    1.5,    0.2,   -0.5,   -0.6,    0.1,    0.4,    0.6,    0.4,    0.2,    0.2,   -0.5,   -1.1,   -1.6,   -1.8,   -1.6,   -1.6,   -2.0,   -2.5,   -2.5,   -2.4,   -1.8,   -1.3,   -1.2,   -0.6,    1.8,  999.0,  999.0,   -1.1,   -1.9,   -2.4,   -3.1,   -4.5,   -6.1,   -7.5,   -9.2,   -9.9,  -10.3,  -10.2,   -9.9,   -9.3
2001/03/28 19:50,  999.0,    2.0,    1.9,    1.1,    1.3,    1.8,    0.9,    0.5,    0.2,    1.0,    1.1,    1.9,    2.9,    3.0,    2.0,    2.0,    2.1,    1.2,    0.6,    0.2,   -0.5,   -1.0,   -1.2,   -1.1,   -1.0,   -1.2,   -1.0,   -1.2,   -1.6,   -2.0,   -2.5,   -2.4,   -2.5,   -2.6,   -2.0,   -2.0,   -1.7,   -1.0,   -0.3,   -0.4,   -0.5,    1.1,    8.0,  999.0,    2.4,    1.5,    0.0,   -1.9,   -3.9,   -6.0,   -7.3,   -7.4,   -7.3,   -7.2,   -6.8,   -6.4,   -6.4,   -6.4
2001/03/28 20:00,  999.0,    2.4,    2.5,    2.1,    1.7,    1.7,    1.5,    1.0,    0.6,    1.3,    2.1,    3.1,    4.0,    4.4,    3.4,    3.4,    3.6,    2.9,    2.3,    2.2,    1.8,    2.3,    3.0,    3.5,    3.6,    3.9,    4.0,    3.9,    3.8,    3.4,    1.7,    1.2,    5.3,    5.3,    2.3,    2.4,    1.3,    0.4,    0.3,    3.6,   -0.5,   -1.7,   -1.2,   -0.1,   -0.9,   -1.3,   -2.0,   -2.0,    1.5,   -0.1,    2.1,   -1.1,   -1.2,    1.4,    1.1,    1.0,    0.9,    0.5
2001/03/28 20:10,  999.0,    2.4,    1.8,    1.5,    1.8,    1.5,    1.2,    1.2,    0.8,    1.1,    2.6,    3.7,    5.2,    7.0,    7.2,    6.9,    6.5,    7.7,    8.4,    7.4,    8.6,   11.4,   12.0,   16.7,   17.2,   11.2,  999.0,  999.0,  999.0,   21.4,  999.0,   20.2,   15.2,  999.0,  999.0,  999.0,  999.0,  999.0,  999.0,  999.0,  999.0,  999.0,  999.0,  999.0,  999.0,  999.0,  999.0,  999.0,  999.0,  999.0,  999.0,  999.0,  999.0,  999.0,  999.0,  999.0,  999.0,  999.0
2001/03/28 20:20,  999.0,    1.1,    0.7,   -2.4,   -0.6,    0.4,    2.2,    3.4,    3.1,    7.2,    8.1,  999.0,  999.0,   -5.1,  999.0,    8.2,  999.0,  999.0,  999.0,  999.0,  999.0,  999.0,  999.0,  999.0,  999.0,  999.0,  999.0,  999.0,  999.0,  999.0,   21.6,   21.2,   19.6,   17.2,   19.2,  999.0,  999.0,  999.0,  999.0,  999.0,  999.0,  999.0,  999.0,  999.0,  999.0,  999.0,  999.0,  999.0,  999.0,  999.0,  999.0,  999.0,  999.0,  999.0,  999.0,  999.0,  999.0,  999.0
2001/03/28 20:30,  999.0,  999.0,    2.0,    0.9,   -0.3,    2.3,    2.3,  999.0,  999.0,    2.5,   -0.8,  999.0,  999.0,    3.0,    3.9,    4.2,  999.0,    4.7,    4.1,    3.7,    3.8,  999.0,  999.0,  999.0,  999.0,  999.0,  999.0,  999.0,  999.0,  999.0,  999.0,  999.0,  999.0,  999.0,  999.0,  999.0,  999.0,  999.0,  999.0,  999.0,  999.0,  999.0,  999.0,  999.0,  999.0,  999.0,  999.0,  999.0,  999.0,  999.0,  999.0,  999.0,  999.0,  999.0,  999.0,  999.0,  999.0,  999.0
2001/03/28 20:40,  999.0,   -0.0,    2.2,    1.9,    4.2,  999.0,  999.0,    1.5,    0.6,    2.3,   -0.7,    1.1,    2.2,    3.0,    2.2,    2.9,   -5.5,   -8.9,   -8.2,   -8.1,  -11.6,  -16.9,  -17.5,  -17.5,  -17.0,  -17.4,  -17.3,  -16.3,  -16.2,  -15.1,  -15.4,  999.0,  999.0,  999.0,  999.0,  999.0,  999.0,  999.0,  999.0,  999.0,  999.0,  999.0,  999.0,  999.0,  999.0,  999.0,  999.0,  999.0,  999.0,  999.0,  999.0,  999.0,  999.0,  999.0,  999.0,  999.0,  999.0,  999.0
2001/03/28 20:50,  999.0,    3.5,    2.1,    2.0,    2.6,    1.8,   -0.8,   -3.5,   -6.8,   -6.8,  -11.7,  -12.1,   -9.4,  -10.2,   -8.5,   -8.6,   -7.8,   -8.4,   -4.8,   -2.3,   -1.2,   -2.4,   -2.5,   -3.2,   -3.8,   -4.0,   -4.5,   -4.4,   -4.5,   -5.1,   -6.0,   -6.6,   -6.6,   -6.8,   -6.5,   -6.5,   -6.6,   -6.3,   -6.1,   -6.3,   -4.9,    0.1,    2.1,   -0.6,   -0.8,   -0.2,   -0.7,   -2.5,   -3.0,   -3.9,   -4.7,   -4.2,   -3.8,   -3.6,   -3.6,   -4.3,   -5.0,   -5.1
2001/03/28 21:00,  999.0,    1.9,    7.2,    4.1,    3.0,    0.6,   -0.5,    1.4,    1.7,   -2.8,   -2.8,   -2.3,   -2.0,   -1.7,   -1.8,   -1.9,   -1.2,   -0.8,   -0.1,    1.6,    2.7,    2.1,    1.5,    1.3,    1.2,    0.3,    0.1,    0.5,    0.3,   -0.6,   -1.9,   -2.2,   -2.3,   -2.4,   -2.5,   -2.8,   -3.0,   -3.2,   -3.2,   -3.4,   -1.8,   -0.4,   -0.5,   -2.4,   -0.8,    1.6,    1.1,    1.7,    1.8,    6.6,    7.2,  999.0,  999.0,  999.0,  999.0,  999.0,  999.0,  999.0
2001/03/28 21:10,  999.0,   -3.9,   -8.9,   -8.3,   -2.5,   -1.0,    1.1,    2.4,    3.1,    2.8,    2.8,    3.1,    3.1,    3.7,    4.1,    3.6,    3.0,    4.0,    4.1,    4.3,    4.4,    3.7,    3.3,    3.3,    3.6,    3.0,    2.9,    3.0,    3.5,    3.6,    3.2,    2.8,    2.5,    2.2,    2.5,    2.2,    1.4,    2.6,    1.6,    2.2,    1.0,    4.4,    9.8,   12.1,   13.5,  999.0,  999.0,  999.0,  999.0,  999.0,  999.0,  999.0,  999.0,  999.0,  999.0,  999.0,  999.0,  999.0
2001/03/28 21:20,  999.0,    3.2,    1.3,    5.5,    4.3,    3.8,    4.4,    5.0,    4.5,    5.2,    5.6,    2.9,    3.7,    7.0,    6.2,    6.7,    6.8,    7.9,    3.4,    6.7,    5.9,    8.5,    6.6,    5.6,    4.9,    4.2,    8.2,    6.9,    7.5,    7.3,    7.3,    6.5,    8.3,  999.0,  999.0,  999.0,  999.0,  999.0,  999.0,  999.0,   -0.4,  999.0,  999.0,  999.0,  999.0,  999.0,  999.0,  999.0,  999.0,  999.0,  999.0,  999.0,  999.0,   -0.7,  999.0,  999.0,  999.0,  999.0
2001/03/28 21:30,  999.0,    2.0,    0.3,    2.0,    2.6,    2.8,    2.9,    2.0,    2.1,    2.3,    2.6,    2.9,    3.9,    5.1,    3.6,    0.3,   -4.2,   -5.0,  999.0,  -10.6,  999.0,  999.0,   -6.6,  999.0,  999.0,  999.0,  999.0,  999.0,  999.0,  999.0,  999.0,  999.0,  999.0,  999.0,  999.0,  999.0,  999.0,  999.0,  999.0,   -9.6,  999.0,  999.0,  999.0,  999.0,  999.0,  999.0,  999.0,  999.0,  999.0,  999.0,  999.0,  999.0,  999.0,  999.0,  999.0,  999.0,  999.0,  999.0
2001/03/28 21:40,  999.0,  999.0,  999.0,  999.0,  999.0,  999.0,  999.0,    3.6,    3.4,    3.1,    3.6,    4.0,    3.3,    3.3,    2.3,    3.2,    3.6,    2.5,  999.0,  999.0,  999.0,  999.0,  999.0,  999.0,  999.0,  999.0,  999.0,  999.0,  999.0,  999.0,  999.0,  999.0,  999.0,  999.0,  999.0,  999.0,  999.0,  -40.7,  -37.9,  999.0,  999.0,  999.0,  999.0,  999.0,  999.0,  -42.1,  999.0,  999.0,  999.0,  999.0,  999.0,  999.0,  999.0,  -42.0,  -41.9,  999.0,  999.0,  999.0
2001/03/28 21:50,  999.0,    1.7,    1.5,    2.0,    2.2,    2.0,    2.5,    3.6,    2.6,    3.3,    2.8,    2.5,    2.3,    2.8,    3.0,    3.6,    2.0,    1.8,    0.1,   -0.5,  999.0,  -13.5,  -12.6,  999.0,  -25.9,  -25.1,  -27.6,  -28.1,  -30.7,  -33.4,  -35.0,  -35.3,  -35.5,  -36.9,  -35.9,  -36.2,  -36.6,  -35.7,  -35.8,  999.0,  999.0,  -35.5,  -33.2,  -31.7,  -29.8,  -33.5,  -32.7,  -34.5,  999.0,  999.0,  999.0,  999.0,  999.0,  999.0,  999.0,  999.0,  -35.9,  -34.0
2001/03/28 22:00,  999.0,    2.0,    1.7,    2.1,    2.3,    2.3,    3.1,    2.5,    2.6,    3.0,    3.7,    3.4,    3.7,    4.0,    4.0,    4.3,    3.9,  999.0,   -6.3,  999.0,  -15.1,  -16.5,  999.0,  999.0,  999.0,  999.0,  999.0,  999.0,  999.0,  999.0,  999.0,  999.0,  999.0,  999.0,  999.0,  999.0,  999.0,  999.0,  999.0,  999.0,  999.0,  999.0,  999.0,  999.0,  999.0,  999.0,  999.0,  999.0,  999.0,  999.0,  999.0,  -27.0,  999.0,  999.0,  999.0,  999.0,  999.0,  999.0
2001/03/28 22:10,  999.0,  999.0,    3.9,    3.2,    1.8,    2.1,    3.5,    3.8,    2.9,    2.9,    2.8,    3.4,    2.9,    3.2,    3.9,    4.6,    5.4,    4.9,    3.4,    2.6,  999.0,  999.0,  999.0,  999.0,  999.0,  999.0,  999.0,  999.0,  999.0,  999.0,  999.0,  999.0,  999.0,  999.0,   -3.1,  999.0,  999.0,  999.0,  999.0,  999.0,    0.5,  999.0,  999.0,    0.6,    1.0,    0.6,  999.0,  999.0,  999.0,    0.4,    0.9,    0.5,    0.5,  999.0,    0.7,  999.0,  999.0,    0.6
2001/03/28 22:20,  999.0,    1.4,    1.2,    2.5,    4.6,    4.0,    4.0,    2.7,    2.4,    3.3,    4.2,    5.5,    5.2,    4.6,    5.0,    4.6,  999.0,    5.8,  999.0,    2.0,  999.0,  999.0,  999.0,  999.0,  999.0,  999.0,  999.0,  999.0,  999.0,  999.0,  999.0,  999.0,  999.0,  999.0,  999.0,  999.0,  999.0,    3.5,  999.0,    1.7,  999.0,  999.0,  999.0,    0.6,  999.0,    0.8,  999.0,    0.9,  999.0,    0.7,  999.0,  999.0,    0.3,    0.6,  999.0,    0.7,    0.8,  999.0
2001/03/28 22:30,  999.0,  999.0,    1.2,    1.9,    3.9,    4.5,    4.3,    4.6,    4.7,    4.6,    4.7,    4.9,    4.8,    5.1,    4.8,  999.0,    4.5,    2.7,  999.0,  999.0,  999.0,  999.0,  999.0,  999.0,  999.0,  999.0,  999.0,  999.0,  999.0,  999.0,  999.0,  999.0,    3.9,  999.0,    1.7,  999.0,    0.5,  999.0,    0.6,    0.8,    0.8,    0.6,    1.0,    0.2,    0.6,    0.3,    0.4,    0.7,    0.7,    0.4,  999.0,    0.3,  999.0,    0.2,    0.5,    0.5,    0.7,    0.7
2001/03/28 22:40,  999.0,    0.9,    0.0,    2.1,    2.8,    3.7,    4.4,    5.5,    4.7,    4.4,    3.9,    4.6,    5.1,    4.3,    2.5,    3.0,    2.3,    1.9,    1.1,  999.0,  999.0,  999.0,  999.0,  999.0,  999.0,  999.0,  999.0,  999.0,    7.1,  999.0,    4.2,    2.6,    2.8,    1.7,  999.0,    1.1,    0.9,    0.8,    0.8,    0.3,  999.0,    0.6,  999.0,    0.7,    0.7,  999.0,    0.9,    1.1,    1.0,    0.6,    0.9,    0.6,    0.1,    0.5,    0.3,    0.1,    1.2,    0.8
2001/03/28 22:50,  999.0,   -2.0,   -1.8,   -0.9,    2.7,    2.8,    3.7,    3.8,    4.7,    4.7,    4.3,    5.4,    6.3,  999.0,  999.0,    3.0,    3.6,    4.4,    5.0,    4.0,  999.0,  999.0,  999.0,  999.0,  999.0,  999.0,  999.0,  999.0,  999.0,  999.0,  999.0,  999.0,  999.0,  999.0,  999.0,  999.0,  999.0,  999.0,  999.0,  999.0,  999.0,  999.0,  999.0,  999.0,  999.0,  999.0,  999.0,  999.0,  999.0,  999.0,  999.0,  999.0,  999.0,  999.0,  999.0,  999.0,  999.0,  999.0
2001/03/28 23:00,  999.0,  999.0,  999.0,    1.8,    2.4,    3.2,    2.3,    3.4,    3.1,    2.8,    3.1,    4.0,    5.4,    3.9,    3.2,    2.5,    2.1,    3.0,    4.7,  999.0,    4.0,    3.9,  999.0,  999.0,  999.0,  999.0,  999.0,  999.0,  999.0,  999.0,  999.0,  999.0,  999.0,  999.0,  999.0,  999.0,  999.0,  999.0,  999.0,  999.0,  999.0,  999.0,  999.0,  999.0,  999.0,  999.0,  999.0,  999.0,  999.0,  999.0,  999.0,  999.0,  999.0,  999.0,  999.0,  999.0,  999.0,  999.0
2001/03/28 23:10,  999.0,   -1.8,    0.2,    2.0,    2.0,    1.7,    0.8,    0.6,    1.5,    2.9,    3.4,    4.6,    4.8,    3.7,    0.6,  999.0,    2.0,    2.8,    3.0,    2.7,    2.7,    1.5,    1.2,    1.1,  999.0,  999.0,  999.0,  999.0,  999.0,  999.0,  999.0,  999.0,  999.0,  999.0,  999.0,  999.0,  999.0,  999.0,  999.0,  999.0,  999.0,  999.0,  999.0,  999.0,  999.0,  999.0,  999.0,  999.0,  999.0,  999.0,  999.0,  999.0,  999.0,  999.0,  999.0,  999.0,  999.0,  999.0
2001/03/28 23:20,  999.0,    0.6,    0.8,    1.7,    3.0,    1.6,    1.6,    1.9,    2.0,    2.1,    3.3,    4.4,    4.2,    3.9,    3.4,    3.3,    3.6,    3.9,    3.8,    3.2,    2.1,    1.6,    1.3,    0.3,    0.8,  999.0,  999.0,  999.0,  999.0,  999.0,  999.0,  999.0,  999.0,  999.0,  999.0,  999.0,  999.0,  999.0,  999.0,  999.0,  999.0,  999.0,  999.0,  999.0,  999.0,  999.0,  999.0,  999.0,  999.0,  999.0,  999.0,  999.0,  999.0,  999.0,  999.0,  999.0,  999.0,  999.0
2001/03/28 23:30,  999.0,    0.6,    1.6,    1.9,    1.0,   -0.1,    0.9,    1.7,    2.2,    2.5,    2.2,  999.0,    5.1,    5.0,    3.9,    3.8,    2.8,  999.0,  999.0,    3.2,  999.0,   -1.0,   -2.0,   -1.5,   -3.9,  999.0,  999.0,  999.0,  999.0,  999.0,  999.0,  999.0,  999.0,  999.0,  999.0,  999.0,  999.0,  999.0,  999.0,  999.0,  999.0,  999.0,  999.0,  999.0,  999.0,  999.0,  999.0,  999.0,  999.0,  999.0,  999.0,  999.0,  999.0,  -17.1,  999.0,  999.0,  999.0,  999.0
2001/03/28 23:40,  999.0,    0.5,    0.7,    0.6,    0.5,    0.4,    1.4,    0.9,    1.4,    1.9,    2.0,   -9.7,    5.1,  999.0,    4.1,    4.4,    4.5,    4.0,    3.6,    3.1,    2.4,    0.4,   -0.8,  999.0,  999.0,  999.0,  999.0,  999.0,  999.0,  999.0,  999.0,  999.0,    8.9,    7.9,    4.7,    5.4,  999.0,    1.2,    2.4,  999.0,    2.0,  999.0,    1.7,    1.7,    1.4,    1.0,    1.0,    0.3,    0.7,  999.0,  999.0,    0.8,    0.5,    0.2,    0.6,    1.1,  999.0,    0.5
2001/03/28 23:50,  999.0,    0.8,   -0.0,    0.5,    1.9,    0.8,   -0.5,   -0.6,    0.4,    0.7,    0.8,    8.8,  999.0,  999.0,  999.0,    4.9,  999.0,    3.3,    2.9,    2.5,    1.3,  999.0,  999.0,  999.0,  999.0,  999.0,  999.0,  999.0,  999.0,  999.0,  999.0,  999.0,    5.1,    6.3,    6.6,    5.9,  999.0,  999.0,  999.0,    3.1,    2.2,    1.2,    1.3,    0.5,  999.0,  999.0,  999.0,    0.4,    0.6,  999.0,    0.6,  999.0,    0.2,    0.5,    0.9,    0.6,    1.8,    0.6
